Time,TemperatureF,DewpointF,PressureIn,WindDirection,WindDirectionDegrees,WindSpeedMPH,WindSpeedGustMPH,Humidity,HourlyPrecipIn,Conditions,Clouds,dailyrainin,SolarRadiationWatts/m^2,SoftwareType,DateUTC
2013-09-02 00:02:00,72.9,62.5,30.07,ENE,74,5.8,5.8,70,0.00,FEW,,0.00,0.0,WeatherDisplay:10.37,2013-09-01 22:02:00,
2013-09-02 00:04:00,73.0,62.6,30.07,ENE,69,5.0,5.0,70,0.00,FEW,,0.00,0.0,WeatherDisplay:10.37,2013-09-01 22:04:00,
2013-09-02 00:05:00,73.0,62.6,30.07,NE,55,4.6,4.6,70,0.00,FEW,,0.00,0.0,WeatherDisplay:10.37,2013-09-01 22:05:00,
2013-09-02 00:06:00,73.0,62.6,30.07,NE,49,5.8,5.8,70,0.00,FEW,,0.00,0.0,WeatherDisplay:10.37,2013-09-01 22:06:00,
2013-09-02 00:07:00,72.9,62.5,30.07,ENE,63,4.6,4.6,70,0.00,FEW,,0.00,0.0,WeatherDisplay:10.37,2013-09-01 22:07:00,
2013-09-02 00:09:00,72.9,62.5,30.07,ENE,67,7.0,7.0,70,0.00,FEW,,0.00,0.0,WeatherDisplay:10.37,2013-09-01 22:09:00,
2013-09-02 00:10:00,72.9,62.5,30.07,ENE,76,6.9,6.9,70,0.00,FEW,,0.00,0.0,WeatherDisplay:10.37,2013-09-01 22:10:00,
2013-09-02 00:11:00,72.8,62.4,30.07,East,84,6.9,6.9,70,0.00,FEW,,0.00,0.0,WeatherDisplay:10.37,2013-09-01 22:11:00,
2013-09-02 00:12:00,72.8,62.4,30.07,ENE,71,4.6,4.6,70,0.00,FEW,,0.00,0.0,WeatherDisplay:10.37,2013-09-01 22:12:00,
2013-09-02 00:13:00,72.7,62.3,30.07,NE,55,5.0,5.0,70,0.00,FEW,,0.00,0.0,WeatherDisplay:10.37,2013-09-01 22:13:00,
2013-09-02 00:14:00,72.6,62.3,30.07,NE,45,6.9,6.9,70,0.00,FEW,,0.00,0.0,WeatherDisplay:10.37,2013-09-01 22:14:00,
2013-09-02 00:15:00,72.6,62.3,30.07,ENE,63,7.0,7.0,70,0.00,FEW,,0.00,0.0,WeatherDisplay:10.37,2013-09-01 22:15:00,
2013-09-02 00:16:00,72.5,62.2,30.07,ENE,58,8.1,8.1,70,0.00,FEW,,0.00,0.0,WeatherDisplay:10.37,2013-09-01 22:16:00,
2013-09-02 00:18:00,72.4,62.1,30.07,ENE,71,4.0,4.0,70,0.00,FEW,,0.00,0.0,WeatherDisplay:10.37,2013-09-01 22:18:00,
2013-09-02 00:19:00,72.4,62.1,30.07,ENE,65,3.5,3.5,70,0.00,FEW,,0.00,0.0,WeatherDisplay:10.37,2013-09-01 22:19:00,
2013-09-02 00:20:00,72.4,62.1,30.07,East,79,6.0,6.0,70,0.00,FEW,,0.00,0.0,WeatherDisplay:10.37,2013-09-01 22:20:00,
2013-09-02 00:21:00,72.3,62.0,30.07,ENE,71,6.9,6.9,70,0.00,FEW,,0.00,0.0,WeatherDisplay:10.37,2013-09-01 22:21:00,
2013-09-02 00:23:00,72.3,61.6,30.07,ENE,66,3.5,3.5,69,0.00,FEW,,0.00,0.0,WeatherDisplay:10.37,2013-09-01 22:23:00,
2013-09-02 00:24:00,72.2,61.5,30.07,ENE,57,3.5,3.5,69,0.00,FEW,,0.00,0.0,WeatherDisplay:10.37,2013-09-01 22:24:00,
2013-09-02 00:25:00,72.2,61.5,30.06,ENE,61,3.5,3.5,69,0.00,FEW,,0.00,0.0,WeatherDisplay:10.37,2013-09-01 22:25:00,
2013-09-02 00:26:00,72.2,61.5,30.07,ENE,67,3.5,3.5,69,0.00,FEW,,0.00,0.0,WeatherDisplay:10.37,2013-09-01 22:26:00,
2013-09-02 00:27:00,72.2,61.5,30.07,ENE,68,2.3,2.3,69,0.00,FEW,,0.00,0.0,WeatherDisplay:10.37,2013-09-01 22:27:00,
2013-09-02 00:29:00,72.2,61.5,30.07,ENE,65,3.5,3.5,69,0.00,FEW,,0.00,0.0,WeatherDisplay:10.37,2013-09-01 22:29:00,
2013-09-02 00:30:00,72.3,61.6,30.07,ENE,76,3.5,3.5,69,0.00,FEW,,0.00,0.0,WeatherDisplay:10.37,2013-09-01 22:30:00,
2013-09-02 00:31:00,72.3,61.6,30.06,ENE,71,3.5,3.5,69,0.00,FEW,,0.00,0.0,WeatherDisplay:10.37,2013-09-01 22:31:00,
2013-09-02 00:33:00,72.3,62.0,30.06,ENE,71,2.3,2.3,70,0.00,FEW,,0.00,0.0,WeatherDisplay:10.37,2013-09-01 22:33:00,
2013-09-02 00:34:00,72.3,61.6,30.06,ENE,70,2.3,0.0,69,0.00,FEW,,0.00,0.0,WeatherDisplay:10.37,2013-09-01 22:34:00,
2013-09-02 00:35:00,72.3,61.6,30.06,ENE,71,1.2,0.0,69,0.00,FEW,,0.00,0.0,WeatherDisplay:10.37,2013-09-01 22:35:00,
2013-09-02 00:36:00,72.3,61.6,30.06,ENE,69,0.0,0.0,69,0.00,FEW,,0.00,0.0,WeatherDisplay:10.37,2013-09-01 22:36:00,
2013-09-02 00:38:00,72.3,61.6,30.06,ENE,70,0.0,0.0,69,0.00,FEW,,0.00,0.0,WeatherDisplay:10.37,2013-09-01 22:38:00,
2013-09-02 00:39:00,72.3,62.0,30.06,ENE,70,0.0,0.0,70,0.00,FEW,,0.00,0.0,WeatherDisplay:10.37,2013-09-01 22:39:00,
2013-09-02 00:40:00,72.4,62.1,30.06,ENE,70,0.0,0.0,70,0.00,FEW,,0.00,0.0,WeatherDisplay:10.37,2013-09-01 22:40:00,
2013-09-02 00:41:00,72.4,62.1,30.06,ENE,70,0.0,0.0,70,0.00,FEW,,0.00,0.0,WeatherDisplay:10.37,2013-09-01 22:41:00,
2013-09-02 00:43:00,72.4,62.1,30.06,ENE,70,0.0,0.0,70,0.00,FEW,,0.00,0.0,WeatherDisplay:10.37,2013-09-01 22:43:00,
2013-09-02 00:44:00,72.4,62.1,30.06,ENE,70,0.0,0.0,70,0.00,FEW,,0.00,0.0,WeatherDisplay:10.37,2013-09-01 22:44:00,
2013-09-02 00:45:00,72.4,62.1,30.06,ENE,70,0.0,0.0,70,0.00,FEW,,0.00,0.0,WeatherDisplay:10.37,2013-09-01 22:45:00,
2013-09-02 00:46:00,72.4,62.1,30.06,ENE,70,0.0,0.0,70,0.00,FEW,,0.00,0.0,WeatherDisplay:10.37,2013-09-01 22:46:00,
2013-09-02 00:49:00,72.4,62.1,30.06,NE,51,4.0,0.0,70,0.00,FEW,,0.00,0.0,WeatherDisplay:10.37,2013-09-01 22:49:00,
2013-09-02 00:50:00,72.4,62.1,30.06,NE,51,3.0,3.0,70,0.00,FEW,,0.00,0.0,WeatherDisplay:10.37,2013-09-01 22:50:00,
2013-09-02 00:51:00,72.4,62.1,30.06,ENE,59,4.6,4.6,70,0.00,FEW,,0.00,0.0,WeatherDisplay:10.37,2013-09-01 22:51:00,
2013-09-02 00:52:00,72.4,62.1,30.06,ENE,61,4.6,4.6,70,0.00,FEW,,0.00,0.0,WeatherDisplay:10.37,2013-09-01 22:52:00,
2013-09-02 00:55:00,72.4,62.5,30.06,NE,50,2.0,2.0,71,0.00,FEW,,0.00,0.0,WeatherDisplay:10.37,2013-09-01 22:55:00,
2013-09-02 00:56:00,72.4,62.5,30.06,ENE,61,3.5,3.5,71,0.00,FEW,,0.00,0.0,WeatherDisplay:10.37,2013-09-01 22:56:00,
2013-09-02 00:57:00,72.4,62.5,30.06,ENE,61,3.5,0.0,71,0.00,FEW,,0.00,0.0,WeatherDisplay:10.37,2013-09-01 22:57:00,
2013-09-02 01:00:00,72.4,62.5,30.06,ENE,62,0.0,0.0,71,0.00,FEW,,0.00,0.0,WeatherDisplay:10.37,2013-09-01 23:00:00,
2013-09-02 01:01:00,72.4,62.5,30.06,ENE,62,0.0,0.0,71,0.00,FEW,,0.00,0.0,WeatherDisplay:10.37,2013-09-01 23:01:00,
2013-09-02 01:02:00,72.4,62.5,30.06,ENE,67,0.0,0.0,71,0.00,FEW,,0.00,0.0,WeatherDisplay:10.37,2013-09-01 23:02:00,
2013-09-02 01:03:00,72.4,62.5,30.07,ENE,71,0.0,0.0,71,0.00,FEW,,0.00,0.0,WeatherDisplay:10.37,2013-09-01 23:03:00,
2013-09-02 01:06:00,72.3,62.4,30.06,East,81,5.0,5.0,71,0.00,FEW,,0.00,0.0,WeatherDisplay:10.37,2013-09-01 23:06:00,
2013-09-02 01:07:00,72.3,62.4,30.06,East,83,4.6,4.6,71,0.00,FEW,,0.00,0.0,WeatherDisplay:10.37,2013-09-01 23:07:00,
2013-09-02 01:08:00,72.3,62.4,30.06,East,85,5.8,5.8,71,0.00,FEW,,0.00,0.0,WeatherDisplay:10.37,2013-09-01 23:08:00,
2013-09-02 01:12:00,72.1,62.2,30.07,East,89,3.5,0.0,71,0.00,FEW,,0.00,0.0,WeatherDisplay:10.37,2013-09-01 23:12:00,
2013-09-02 01:13:00,72.1,62.2,30.07,East,89,1.2,1.2,71,0.00,FEW,,0.00,0.0,WeatherDisplay:10.37,2013-09-01 23:13:00,
2013-09-02 01:14:00,72.1,62.2,30.06,East,90,0.0,0.0,71,0.00,FEW,,0.00,0.0,WeatherDisplay:10.37,2013-09-01 23:14:00,
2013-09-02 01:17:00,72.0,62.1,30.07,ENE,69,0.0,0.0,71,0.00,FEW,,0.00,0.0,WeatherDisplay:10.37,2013-09-01 23:17:00,
2013-09-02 01:18:00,72.0,62.1,30.07,ENE,69,0.0,0.0,71,0.00,FEW,,0.00,0.0,WeatherDisplay:10.37,2013-09-01 23:18:00,
2013-09-02 01:19:00,72.0,62.1,30.07,ENE,69,0.0,0.0,71,0.00,FEW,,0.00,0.0,WeatherDisplay:10.37,2013-09-01 23:19:00,
2013-09-02 01:20:00,71.9,62.0,30.06,ENE,57,1.2,1.2,71,0.00,FEW,,0.00,0.0,WeatherDisplay:10.37,2013-09-01 23:20:00,
2013-09-02 01:22:00,71.9,62.0,30.06,ENE,57,3.5,3.5,71,0.00,FEW,,0.00,0.0,WeatherDisplay:10.37,2013-09-01 23:22:00,
2013-09-02 01:23:00,71.9,62.0,30.06,ENE,57,4.0,4.0,71,0.00,FEW,,0.00,0.0,WeatherDisplay:10.37,2013-09-01 23:23:00,
2013-09-02 01:24:00,71.9,62.0,30.06,ENE,71,6.9,6.9,71,0.00,FEW,,0.00,0.0,WeatherDisplay:10.37,2013-09-01 23:24:00,
2013-09-02 01:26:00,71.9,61.6,30.06,NE,50,6.9,6.9,70,0.00,FEW,,0.00,0.0,WeatherDisplay:10.37,2013-09-01 23:26:00,
2013-09-02 01:27:00,71.9,61.6,30.06,NE,55,5.8,5.8,70,0.00,FEW,,0.00,0.0,WeatherDisplay:10.37,2013-09-01 23:27:00,
2013-09-02 01:28:00,71.9,61.6,30.06,NE,44,5.8,5.8,70,0.00,FEW,,0.00,0.0,WeatherDisplay:10.37,2013-09-01 23:28:00,
2013-09-02 01:29:00,71.9,61.6,30.06,NE,56,4.6,4.6,70,0.00,FEW,,0.00,0.0,WeatherDisplay:10.37,2013-09-01 23:29:00,
2013-09-02 01:31:00,71.9,61.6,30.06,NE,52,3.5,3.5,70,0.00,FEW,,0.00,0.0,WeatherDisplay:10.37,2013-09-01 23:31:00,
2013-09-02 01:32:00,71.9,61.6,30.06,NE,51,3.5,3.5,70,0.00,FEW,,0.00,0.0,WeatherDisplay:10.37,2013-09-01 23:32:00,
2013-09-02 01:33:00,71.9,61.6,30.06,NE,35,3.5,3.5,70,0.00,FEW,,0.00,0.0,WeatherDisplay:10.37,2013-09-01 23:33:00,
2013-09-02 01:34:00,71.8,61.5,30.06,NE,51,3.5,3.5,70,0.00,FEW,,0.00,0.0,WeatherDisplay:10.37,2013-09-01 23:34:00,
2013-09-02 01:38:00,71.8,61.5,30.06,NNE,32,3.0,3.0,70,0.00,FEW,,0.00,0.0,WeatherDisplay:10.37,2013-09-01 23:38:00,
2013-09-02 01:39:00,71.8,61.5,30.06,NE,45,3.5,3.5,70,0.00,FEW,,0.00,0.0,WeatherDisplay:10.37,2013-09-01 23:39:00,
2013-09-02 01:40:00,71.8,61.5,30.06,NE,44,3.5,3.5,70,0.00,FEW,,0.00,0.0,WeatherDisplay:10.37,2013-09-01 23:40:00,
2013-09-02 01:44:00,71.8,61.5,30.06,NNE,15,2.3,2.3,70,0.00,FEW,,0.00,0.0,WeatherDisplay:10.37,2013-09-01 23:44:00,
2013-09-02 01:45:00,71.8,61.5,30.06,ENE,70,3.5,3.5,70,0.00,FEW,,0.00,0.0,WeatherDisplay:10.37,2013-09-01 23:45:00,
2013-09-02 01:46:00,71.8,61.5,30.06,ENE,60,3.5,3.5,70,0.00,FEW,,0.00,0.0,WeatherDisplay:10.37,2013-09-01 23:46:00,
2013-09-02 01:49:00,71.8,61.5,30.06,NE,36,3.5,3.5,70,0.00,FEW,,0.00,0.0,WeatherDisplay:10.37,2013-09-01 23:49:00,
2013-09-02 01:50:00,71.8,61.5,30.06,ENE,58,3.0,3.0,70,0.00,FEW,,0.00,0.0,WeatherDisplay:10.37,2013-09-01 23:50:00,
2013-09-02 01:51:00,71.8,61.1,30.06,NNE,31,6.9,6.9,69,0.00,FEW,,0.00,0.0,WeatherDisplay:10.37,2013-09-01 23:51:00,
2013-09-02 01:52:00,71.8,61.1,30.06,NE,36,4.6,4.6,69,0.00,FEW,,0.00,0.0,WeatherDisplay:10.37,2013-09-01 23:52:00,
2013-09-02 01:54:00,71.8,61.1,30.06,ENE,69,4.6,4.6,69,0.00,FEW,,0.00,0.0,WeatherDisplay:10.37,2013-09-01 23:54:00,
2013-09-02 01:55:00,71.8,61.1,30.06,ENE,64,8.0,8.0,69,0.00,FEW,,0.00,0.0,WeatherDisplay:10.37,2013-09-01 23:55:00,
2013-09-02 01:56:00,71.8,61.1,30.06,ENE,61,6.9,6.9,69,0.00,FEW,,0.00,0.0,WeatherDisplay:10.37,2013-09-01 23:56:00,
2013-09-02 01:57:00,71.8,61.1,30.06,NE,51,6.9,6.9,69,0.00,FEW,,0.00,0.0,WeatherDisplay:10.37,2013-09-01 23:57:00,
2013-09-02 02:00:00,71.8,61.1,30.06,ENE,69,5.8,5.8,69,0.00,FEW,,0.00,0.0,WeatherDisplay:10.37,2013-09-02 00:00:00,
2013-09-02 02:02:00,71.7,61.0,30.06,NNE,26,4.6,4.6,69,0.00,FEW,,0.00,0.0,WeatherDisplay:10.37,2013-09-02 00:02:00,
2013-09-02 02:03:00,71.7,61.0,30.06,NNE,33,6.9,6.9,69,0.00,FEW,,0.00,0.0,WeatherDisplay:10.37,2013-09-02 00:03:00,
2013-09-02 02:05:00,71.7,60.6,30.06,NE,53,5.0,5.0,68,0.00,FEW,,0.00,0.0,WeatherDisplay:10.37,2013-09-02 00:05:00,
2013-09-02 02:06:00,71.6,60.5,30.06,ENE,64,5.8,5.8,68,0.00,FEW,,0.00,0.0,WeatherDisplay:10.37,2013-09-02 00:06:00,
2013-09-02 02:07:00,71.6,60.5,30.06,NE,46,6.9,6.9,68,0.00,FEW,,0.00,0.0,WeatherDisplay:10.37,2013-09-02 00:07:00,
2013-09-02 02:08:00,71.6,60.5,30.06,NE,56,10.4,10.4,68,0.00,FEW,,0.00,0.0,WeatherDisplay:10.37,2013-09-02 00:08:00,
2013-09-02 02:09:00,71.6,60.5,30.06,ENE,70,6.9,6.9,68,0.00,FEW,,0.00,0.0,WeatherDisplay:10.37,2013-09-02 00:09:00,
2013-09-02 02:10:00,71.5,60.4,30.06,ENE,69,6.9,6.9,68,0.00,FEW,,0.00,0.0,WeatherDisplay:10.37,2013-09-02 00:10:00,
2013-09-02 02:11:00,71.5,60.4,30.06,ENE,76,6.9,6.9,68,0.00,FEW,,0.00,0.0,WeatherDisplay:10.37,2013-09-02 00:11:00,
2013-09-02 02:13:00,71.5,60.4,30.06,ENE,76,6.9,6.9,68,0.00,FEW,,0.00,0.0,WeatherDisplay:10.37,2013-09-02 00:13:00,
2013-09-02 02:14:00,71.4,60.3,30.06,ENE,76,6.9,6.9,68,0.00,FEW,,0.00,0.0,WeatherDisplay:10.37,2013-09-02 00:14:00,
2013-09-02 02:15:00,71.4,60.3,30.06,East,86,8.1,8.1,68,0.00,FEW,,0.00,0.0,WeatherDisplay:10.37,2013-09-02 00:15:00,
2013-09-02 02:16:00,71.4,60.3,30.06,ENE,78,9.0,9.0,68,0.00,FEW,,0.00,0.0,WeatherDisplay:10.37,2013-09-02 00:16:00,
2013-09-02 02:20:00,71.4,60.3,30.06,ENE,76,4.6,4.6,68,0.00,FEW,,0.00,0.0,WeatherDisplay:10.37,2013-09-02 00:20:00,
2013-09-02 02:21:00,71.4,60.3,30.06,East,86,6.0,6.0,68,0.00,FEW,,0.00,0.0,WeatherDisplay:10.37,2013-09-02 00:21:00,
2013-09-02 02:25:00,71.3,60.6,30.06,East,98,4.6,4.6,69,0.00,FEW,,0.00,0.0,WeatherDisplay:10.37,2013-09-02 00:25:00,
2013-09-02 02:26:00,71.2,60.5,30.06,East,91,4.6,4.6,69,0.00,FEW,,0.00,0.0,WeatherDisplay:10.37,2013-09-02 00:26:00,
2013-09-02 02:27:00,71.2,60.5,30.06,ENE,77,9.2,9.2,69,0.00,FEW,,0.00,0.0,WeatherDisplay:10.37,2013-09-02 00:27:00,
2013-09-02 02:31:00,71.1,60.4,30.06,ENE,71,7.0,7.0,69,0.00,FEW,,0.00,0.0,WeatherDisplay:10.37,2013-09-02 00:31:00,
2013-09-02 02:32:00,71.1,60.4,30.06,ENE,70,8.1,8.1,69,0.00,FEW,,0.00,0.0,WeatherDisplay:10.37,2013-09-02 00:32:00,
2013-09-02 02:35:00,70.9,60.2,30.06,ENE,61,9.2,9.2,69,0.00,FEW,,0.00,0.0,WeatherDisplay:10.37,2013-09-02 00:35:00,
2013-09-02 02:37:00,70.9,60.2,30.06,ENE,67,9.2,9.2,69,0.00,FEW,,0.00,0.0,WeatherDisplay:10.37,2013-09-02 00:37:00,
2013-09-02 02:41:00,70.8,60.1,30.06,ENE,71,9.2,9.2,69,0.00,FEW,,0.00,0.0,WeatherDisplay:10.37,2013-09-02 00:41:00,
2013-09-02 02:42:00,70.8,60.1,30.06,ENE,68,8.1,8.1,69,0.00,FEW,,0.00,0.0,WeatherDisplay:10.37,2013-09-02 00:42:00,
2013-09-02 02:43:00,70.8,60.1,30.06,ENE,78,8.1,8.1,69,0.00,FEW,,0.00,0.0,WeatherDisplay:10.37,2013-09-02 00:43:00,
2013-09-02 02:47:00,70.8,60.1,30.06,ENE,62,8.0,8.0,69,0.00,FEW,,0.00,0.0,WeatherDisplay:10.37,2013-09-02 00:47:00,
2013-09-02 02:48:00,70.8,60.1,30.06,ENE,64,9.2,9.2,69,0.00,FEW,,0.00,0.0,WeatherDisplay:10.37,2013-09-02 00:48:00,
2013-09-02 02:52:00,70.7,60.0,30.06,NNE,15,5.0,5.0,69,0.00,FEW,,0.00,0.0,WeatherDisplay:10.37,2013-09-02 00:52:00,
2013-09-02 02:53:00,70.7,60.0,30.06,NE,46,6.9,6.9,69,0.00,FEW,,0.00,0.0,WeatherDisplay:10.37,2013-09-02 00:53:00,
2013-09-02 02:54:00,70.7,60.0,30.06,NNE,30,5.0,5.0,69,0.00,FEW,,0.00,0.0,WeatherDisplay:10.37,2013-09-02 00:54:00,
2013-09-02 02:57:00,70.6,59.9,30.06,NE,39,8.1,8.1,69,0.00,FEW,,0.00,0.0,WeatherDisplay:10.37,2013-09-02 00:57:00,
2013-09-02 02:58:00,70.6,59.9,30.06,NE,39,4.6,4.6,69,0.00,FEW,,0.00,0.0,WeatherDisplay:10.37,2013-09-02 00:58:00,
2013-09-02 02:59:00,70.6,59.9,30.06,NE,36,5.8,5.8,69,0.00,FEW,,0.00,0.0,WeatherDisplay:10.37,2013-09-02 00:59:00,
2013-09-02 03:00:00,70.6,59.9,30.06,NE,37,8.1,8.1,69,0.00,FEW,,0.00,0.0,WeatherDisplay:10.37,2013-09-02 01:00:00,
2013-09-02 03:02:00,70.6,59.9,30.06,North,11,8.0,8.0,69,0.00,FEW,,0.00,0.0,WeatherDisplay:10.37,2013-09-02 01:02:00,
2013-09-02 03:03:00,70.6,59.9,30.06,NNE,29,8.1,8.1,69,0.00,FEW,,0.00,0.0,WeatherDisplay:10.37,2013-09-02 01:03:00,
2013-09-02 03:05:00,70.5,59.8,30.06,NNE,32,5.8,5.8,69,0.00,FEW,,0.00,0.0,WeatherDisplay:10.37,2013-09-02 01:05:00,
2013-09-02 03:07:00,70.5,59.8,30.06,NE,46,5.8,5.8,69,0.00,FEW,,0.00,0.0,WeatherDisplay:10.37,2013-09-02 01:07:00,
2013-09-02 03:08:00,70.5,59.8,30.06,NE,38,3.5,3.5,69,0.00,FEW,,0.00,0.0,WeatherDisplay:10.37,2013-09-02 01:08:00,
2013-09-02 03:09:00,70.5,59.8,30.06,NNE,16,3.5,0.0,69,0.00,FEW,,0.00,0.0,WeatherDisplay:10.37,2013-09-02 01:09:00,
2013-09-02 03:12:00,70.5,59.8,30.06,NNE,19,3.5,3.5,69,0.00,FEW,,0.00,0.0,WeatherDisplay:10.37,2013-09-02 01:12:00,
2013-09-02 03:13:00,70.5,59.8,30.06,NE,43,3.5,3.5,69,0.00,FEW,,0.00,0.0,WeatherDisplay:10.37,2013-09-02 01:13:00,
2013-09-02 03:14:00,70.4,59.7,30.06,NE,36,3.5,3.5,69,0.00,FEW,,0.00,0.0,WeatherDisplay:10.37,2013-09-02 01:14:00,
2013-09-02 03:17:00,70.4,59.7,30.06,NE,44,4.6,4.6,69,0.00,FEW,,0.00,0.0,WeatherDisplay:10.37,2013-09-02 01:17:00,
2013-09-02 03:18:00,70.4,59.7,30.06,NE,44,3.5,3.5,69,0.00,FEW,,0.00,0.0,WeatherDisplay:10.37,2013-09-02 01:18:00,
2013-09-02 03:20:00,70.3,59.6,30.06,NNE,31,3.5,3.5,69,0.00,FEW,,0.00,0.0,WeatherDisplay:10.37,2013-09-02 01:20:00,
2013-09-02 03:22:00,70.3,59.6,30.05,NE,49,4.6,4.6,69,0.00,FEW,,0.00,0.0,WeatherDisplay:10.37,2013-09-02 01:22:00,
2013-09-02 03:23:00,70.3,59.6,30.06,NE,48,2.3,0.0,69,0.00,FEW,,0.00,0.0,WeatherDisplay:10.37,2013-09-02 01:23:00,
2013-09-02 03:25:00,70.3,59.6,30.06,NE,53,3.5,3.5,69,0.00,FEW,,0.00,0.0,WeatherDisplay:10.37,2013-09-02 01:25:00,
2013-09-02 03:28:00,70.2,59.6,30.05,NNE,26,4.0,4.1,69,0.00,FEW,,0.00,0.0,WeatherDisplay:10.37,2013-09-02 01:28:00,
2013-09-02 03:29:00,70.2,59.6,30.05,NE,40,5.8,5.8,69,0.00,FEW,,0.00,0.0,WeatherDisplay:10.37,2013-09-02 01:29:00,
2013-09-02 03:30:00,70.2,59.6,30.06,NE,50,4.0,4.0,69,0.00,FEW,,0.00,0.0,WeatherDisplay:10.37,2013-09-02 01:30:00,
2013-09-02 03:33:00,70.1,59.5,30.05,North,5,4.6,4.6,69,0.00,FEW,,0.00,0.0,WeatherDisplay:10.37,2013-09-02 01:33:00,
2013-09-02 03:34:00,70.1,59.5,30.05,NE,46,4.6,4.6,69,0.00,FEW,,0.00,0.0,WeatherDisplay:10.37,2013-09-02 01:34:00,
2013-09-02 03:35:00,70.1,59.5,30.05,NNE,27,5.8,5.8,69,0.00,FEW,,0.00,0.0,WeatherDisplay:10.37,2013-09-02 01:35:00,
2013-09-02 03:39:00,70.0,59.4,30.05,NE,34,6.0,6.0,69,0.00,FEW,,0.00,0.0,WeatherDisplay:10.37,2013-09-02 01:39:00,
2013-09-02 03:40:00,70.0,59.4,30.05,NNE,28,6.0,6.0,69,0.00,FEW,,0.00,0.0,WeatherDisplay:10.37,2013-09-02 01:40:00,
2013-09-02 03:41:00,70.0,59.4,30.05,NE,34,8.1,8.1,69,0.00,FEW,,0.00,0.0,WeatherDisplay:10.37,2013-09-02 01:41:00,
2013-09-02 03:44:00,69.9,59.3,30.05,NNE,28,8.1,8.1,69,0.00,FEW,,0.00,0.0,WeatherDisplay:10.37,2013-09-02 01:44:00,
2013-09-02 03:45:00,69.9,59.3,30.05,NNE,27,8.1,8.1,69,0.00,FEW,,0.00,0.0,WeatherDisplay:10.37,2013-09-02 01:45:00,
2013-09-02 03:46:00,69.9,59.3,30.04,NE,42,6.9,6.9,69,0.00,FEW,,0.00,0.0,WeatherDisplay:10.37,2013-09-02 01:46:00,
2013-09-02 03:47:00,69.9,58.9,30.04,NE,40,8.1,8.1,68,0.00,FEW,,0.00,0.0,WeatherDisplay:10.37,2013-09-02 01:47:00,
2013-09-02 03:49:00,69.9,58.9,30.05,NE,44,4.6,4.6,68,0.00,FEW,,0.00,0.0,WeatherDisplay:10.37,2013-09-02 01:49:00,
2013-09-02 03:50:00,69.9,58.9,30.05,NE,48,3.5,3.5,68,0.00,FEW,,0.00,0.0,WeatherDisplay:10.37,2013-09-02 01:50:00,
2013-09-02 03:51:00,69.9,58.9,30.05,ENE,70,3.5,0.0,68,0.00,FEW,,0.00,0.0,WeatherDisplay:10.37,2013-09-02 01:51:00,
2013-09-02 03:52:00,69.9,58.9,30.05,NNE,29,1.2,0.0,68,0.00,FEW,,0.00,0.0,WeatherDisplay:10.37,2013-09-02 01:52:00,
2013-09-02 03:54:00,69.9,58.9,30.05,NNE,28,4.6,4.6,68,0.00,FEW,,0.00,0.0,WeatherDisplay:10.37,2013-09-02 01:54:00,
2013-09-02 03:55:00,69.9,58.9,30.05,NNE,32,3.5,3.5,68,0.00,FEW,,0.00,0.0,WeatherDisplay:10.37,2013-09-02 01:55:00,
2013-09-02 03:57:00,69.9,58.9,30.05,NNE,28,3.5,3.5,68,0.00,FEW,,0.00,0.0,WeatherDisplay:10.37,2013-09-02 01:57:00,
2013-09-02 03:58:00,69.9,58.4,30.05,NE,48,4.6,4.6,67,0.00,FEW,,0.00,0.0,WeatherDisplay:10.37,2013-09-02 01:58:00,
2013-09-02 03:59:00,69.9,58.4,30.05,NE,52,4.6,4.6,67,0.00,FEW,,0.00,0.0,WeatherDisplay:10.37,2013-09-02 01:59:00,
2013-09-02 04:00:00,69.9,58.4,30.05,ENE,59,0.0,0.0,67,0.00,FEW,,0.00,0.0,WeatherDisplay:10.37,2013-09-02 02:00:00,
2013-09-02 04:02:00,69.9,58.4,30.05,ENE,61,0.0,0.0,67,0.00,FEW,,0.00,0.0,WeatherDisplay:10.37,2013-09-02 02:02:00,
2013-09-02 04:04:00,70.0,58.5,30.05,ENE,65,2.3,2.3,67,0.00,FEW,,0.00,0.0,WeatherDisplay:10.37,2013-09-02 02:04:00,
2013-09-02 04:06:00,70.0,58.5,30.05,ENE,67,0.0,0.0,67,0.00,FEW,,0.00,0.0,WeatherDisplay:10.37,2013-09-02 02:06:00,
2013-09-02 04:07:00,70.0,58.5,30.05,NE,50,0.0,0.0,67,0.00,FEW,,0.00,0.0,WeatherDisplay:10.37,2013-09-02 02:07:00,
2013-09-02 04:09:00,70.0,58.5,30.05,ENE,65,3.0,3.0,67,0.00,FEW,,0.00,0.0,WeatherDisplay:10.37,2013-09-02 02:09:00,
2013-09-02 04:10:00,70.0,58.5,30.05,ENE,59,3.5,3.5,67,0.00,FEW,,0.00,0.0,WeatherDisplay:10.37,2013-09-02 02:10:00,
2013-09-02 04:11:00,70.0,58.1,30.05,ENE,61,3.5,3.5,66,0.00,FEW,,0.00,0.0,WeatherDisplay:10.37,2013-09-02 02:11:00,
2013-09-02 04:13:00,70.1,58.2,30.05,ENE,58,5.0,5.0,66,0.00,FEW,,0.00,0.0,WeatherDisplay:10.37,2013-09-02 02:13:00,
2013-09-02 04:15:00,70.1,58.2,30.05,NE,51,3.5,3.5,66,0.00,FEW,,0.00,0.0,WeatherDisplay:10.37,2013-09-02 02:15:00,
2013-09-02 04:16:00,70.1,58.2,30.05,NE,49,3.5,3.5,66,0.00,FEW,,0.00,0.0,WeatherDisplay:10.37,2013-09-02 02:16:00,
2013-09-02 04:17:00,70.1,58.2,30.05,NE,36,3.5,3.5,66,0.00,FEW,,0.00,0.0,WeatherDisplay:10.37,2013-09-02 02:17:00,
2013-09-02 04:18:00,70.1,58.2,30.05,ENE,69,3.5,3.5,66,0.00,FEW,,0.00,0.0,WeatherDisplay:10.37,2013-09-02 02:18:00,
2013-09-02 04:20:00,70.1,58.2,30.05,ENE,57,5.8,5.8,66,0.00,FEW,,0.00,0.0,WeatherDisplay:10.37,2013-09-02 02:20:00,
2013-09-02 04:21:00,70.1,58.2,30.05,ENE,73,4.6,4.6,66,0.00,FEW,,0.00,0.0,WeatherDisplay:10.37,2013-09-02 02:21:00,
2013-09-02 04:22:00,70.1,58.2,30.05,NE,44,5.0,5.0,66,0.00,FEW,,0.00,0.0,WeatherDisplay:10.37,2013-09-02 02:22:00,
2013-09-02 04:23:00,70.1,58.2,30.05,NNE,32,8.1,8.1,66,0.00,FEW,,0.00,0.0,WeatherDisplay:10.37,2013-09-02 02:23:00,
2013-09-02 04:24:00,70.1,57.8,30.05,NE,46,8.1,8.1,65,0.00,FEW,,0.00,0.0,WeatherDisplay:10.37,2013-09-02 02:24:00,
2013-09-02 04:26:00,70.1,58.2,30.05,NNW,348,5.8,5.8,66,0.00,FEW,,0.00,0.0,WeatherDisplay:10.37,2013-09-02 02:26:00,
2013-09-02 04:27:00,70.1,57.8,30.05,NE,49,8.1,8.1,65,0.00,FEW,,0.00,0.0,WeatherDisplay:10.37,2013-09-02 02:27:00,
2013-09-02 04:30:00,70.0,57.7,30.05,ENE,63,6.9,6.9,65,0.00,FEW,,0.00,0.0,WeatherDisplay:10.37,2013-09-02 02:30:00,
2013-09-02 04:31:00,70.0,57.7,30.04,NE,49,6.9,6.9,65,0.00,FEW,,0.00,0.0,WeatherDisplay:10.37,2013-09-02 02:31:00,
2013-09-02 04:32:00,69.9,57.6,30.04,NE,47,4.6,4.6,65,0.00,FEW,,0.00,0.0,WeatherDisplay:10.37,2013-09-02 02:32:00,
2013-09-02 04:33:00,69.8,57.5,30.04,NE,50,9.2,9.2,65,0.00,FEW,,0.00,0.0,WeatherDisplay:10.37,2013-09-02 02:33:00,
2013-09-02 04:35:00,69.8,57.5,30.04,NE,56,9.2,9.2,65,0.00,FEW,,0.00,0.0,WeatherDisplay:10.37,2013-09-02 02:35:00,
2013-09-02 04:36:00,69.8,57.5,30.04,NE,49,9.2,9.2,65,0.00,FEW,,0.00,0.0,WeatherDisplay:10.37,2013-09-02 02:36:00,
2013-09-02 04:37:00,69.8,57.5,30.04,NE,36,6.9,6.9,65,0.00,FEW,,0.00,0.0,WeatherDisplay:10.37,2013-09-02 02:37:00,
2013-09-02 04:39:00,69.8,57.5,30.04,ENE,58,9.2,9.2,65,0.00,FEW,,0.00,0.0,WeatherDisplay:10.37,2013-09-02 02:39:00,
2013-09-02 04:41:00,69.7,57.8,30.04,ENE,70,9.2,9.2,66,0.00,FEW,,0.00,0.0,WeatherDisplay:10.37,2013-09-02 02:41:00,
2013-09-02 04:42:00,69.7,57.8,30.04,ENE,59,9.2,9.2,66,0.00,FEW,,0.00,0.0,WeatherDisplay:10.37,2013-09-02 02:42:00,
2013-09-02 04:44:00,69.7,57.8,30.04,NNE,30,6.9,6.9,66,0.00,FEW,,0.00,0.0,WeatherDisplay:10.37,2013-09-02 02:44:00,
2013-09-02 04:46:00,69.6,57.7,30.04,NE,54,6.9,6.9,66,0.00,FEW,,0.00,0.0,WeatherDisplay:10.37,2013-09-02 02:46:00,
2013-09-02 04:47:00,69.6,57.7,30.04,NE,54,3.5,3.5,66,0.00,FEW,,0.00,0.0,WeatherDisplay:10.37,2013-09-02 02:47:00,
2013-09-02 04:50:00,69.6,57.7,30.05,NE,49,4.0,4.0,66,0.00,FEW,,0.00,0.0,WeatherDisplay:10.37,2013-09-02 02:50:00,
2013-09-02 04:51:00,69.5,57.2,30.05,NE,53,5.8,5.8,65,0.00,FEW,,0.00,0.0,WeatherDisplay:10.37,2013-09-02 02:51:00,
2013-09-02 04:52:00,69.5,57.2,30.05,NNE,19,3.5,3.5,65,0.00,FEW,,0.00,0.0,WeatherDisplay:10.37,2013-09-02 02:52:00,
2013-09-02 04:53:00,69.5,57.2,30.05,ENE,74,3.5,3.5,65,0.00,FEW,,0.00,0.0,WeatherDisplay:10.37,2013-09-02 02:53:00,
2013-09-02 04:55:00,69.5,57.2,30.05,ENE,63,2.3,0.0,65,0.00,FEW,,0.00,0.0,WeatherDisplay:10.37,2013-09-02 02:55:00,
2013-09-02 04:57:00,69.4,57.1,30.05,NE,54,1.2,0.0,65,0.00,FEW,,0.00,0.0,WeatherDisplay:10.37,2013-09-02 02:57:00,
2013-09-02 04:58:00,69.4,57.1,30.05,ENE,65,7.0,7.0,65,0.00,FEW,,0.00,0.0,WeatherDisplay:10.37,2013-09-02 02:58:00,
2013-09-02 05:02:00,69.4,56.7,30.05,ENE,63,9.2,9.2,64,0.00,FEW,,0.00,0.0,WeatherDisplay:10.37,2013-09-02 03:02:00,
2013-09-02 05:03:00,69.3,56.6,30.05,NE,54,6.9,6.9,64,0.00,FEW,,0.00,0.0,WeatherDisplay:10.37,2013-09-02 03:03:00,
2013-09-02 05:04:00,69.3,56.6,30.05,East,82,4.6,4.6,64,0.00,FEW,,0.00,0.0,WeatherDisplay:10.37,2013-09-02 03:04:00,
2013-09-02 05:06:00,69.3,56.6,30.05,ENE,69,8.1,8.1,64,0.00,FEW,,0.00,0.0,WeatherDisplay:10.37,2013-09-02 03:06:00,
2013-09-02 05:07:00,69.3,56.6,30.05,ENE,62,6.9,6.9,64,0.00,FEW,,0.00,0.0,WeatherDisplay:10.37,2013-09-02 03:07:00,
2013-09-02 05:08:00,69.3,56.6,30.05,NE,51,6.9,6.9,64,0.00,FEW,,0.00,0.0,WeatherDisplay:10.37,2013-09-02 03:08:00,
2013-09-02 05:09:00,69.3,56.2,30.05,ENE,65,7.0,7.0,63,0.00,FEW,,0.00,0.0,WeatherDisplay:10.37,2013-09-02 03:09:00,
2013-09-02 05:11:00,69.3,56.2,30.05,NE,51,8.1,8.1,63,0.00,FEW,,0.00,0.0,WeatherDisplay:10.37,2013-09-02 03:11:00,
2013-09-02 05:13:00,69.2,56.1,30.05,ENE,70,8.1,8.1,63,0.00,FEW,,0.00,0.0,WeatherDisplay:10.37,2013-09-02 03:13:00,
2013-09-02 05:14:00,69.2,55.6,30.05,NE,38,8.1,8.1,62,0.00,FEW,,0.00,0.0,WeatherDisplay:10.37,2013-09-02 03:14:00,
2013-09-02 05:17:00,69.2,55.2,30.05,NNE,30,8.1,8.1,61,0.00,FEW,,0.00,0.0,WeatherDisplay:10.37,2013-09-02 03:17:00,
2013-09-02 05:18:00,69.2,55.2,30.05,NE,52,8.1,8.1,61,0.00,FEW,,0.00,0.0,WeatherDisplay:10.37,2013-09-02 03:18:00,
2013-09-02 05:19:00,69.2,55.2,30.05,NNE,32,6.9,6.9,61,0.00,FEW,,0.00,0.0,WeatherDisplay:10.37,2013-09-02 03:19:00,
2013-09-02 05:23:00,69.2,55.2,30.05,NNE,25,4.0,4.0,61,0.00,FEW,,0.00,0.0,WeatherDisplay:10.37,2013-09-02 03:23:00,
2013-09-02 05:24:00,69.2,55.2,30.05,ENE,57,3.5,3.5,61,0.00,FEW,,0.00,0.0,WeatherDisplay:10.37,2013-09-02 03:24:00,
2013-09-02 05:25:00,69.2,55.2,30.05,ENE,57,2.3,2.3,61,0.00,FEW,,0.00,0.0,WeatherDisplay:10.37,2013-09-02 03:25:00,
2013-09-02 05:28:00,69.3,55.3,30.06,ENE,60,0.0,0.0,61,0.00,FEW,,0.00,0.0,WeatherDisplay:10.37,2013-09-02 03:28:00,
2013-09-02 05:29:00,69.3,55.3,30.06,ENE,60,0.0,0.0,61,0.00,FEW,,0.00,0.0,WeatherDisplay:10.37,2013-09-02 03:29:00,
2013-09-02 05:30:00,69.2,55.2,30.06,ENE,59,1.0,0.0,61,0.00,FEW,,0.00,0.0,WeatherDisplay:10.37,2013-09-02 03:30:00,
2013-09-02 05:33:00,69.3,54.8,30.06,NE,49,5.8,5.8,60,0.00,FEW,,0.00,0.0,WeatherDisplay:10.37,2013-09-02 03:33:00,
2013-09-02 05:34:00,69.3,54.8,30.06,NE,49,7.0,7.0,60,0.00,FEW,,0.00,0.0,WeatherDisplay:10.37,2013-09-02 03:34:00,
2013-09-02 05:35:00,69.3,54.8,30.06,East,81,4.6,4.6,60,0.00,FEW,,0.00,0.0,WeatherDisplay:10.37,2013-09-02 03:35:00,
2013-09-02 05:36:00,69.3,54.8,30.06,East,84,6.9,6.9,60,0.00,FEW,,0.00,0.0,WeatherDisplay:10.37,2013-09-02 03:36:00,
2013-09-02 05:38:00,69.3,55.3,30.06,ENE,66,8.1,8.1,61,0.00,FEW,,0.00,0.0,WeatherDisplay:10.37,2013-09-02 03:38:00,
2013-09-02 05:39:00,69.3,55.3,30.06,NE,42,6.9,6.9,61,0.00,FEW,,0.00,0.0,WeatherDisplay:10.37,2013-09-02 03:39:00,
2013-09-02 05:40:00,69.3,55.3,30.06,ENE,57,8.1,8.1,61,0.00,FEW,,0.00,0.0,WeatherDisplay:10.37,2013-09-02 03:40:00,
2013-09-02 05:41:00,69.3,55.3,30.06,ENE,66,8.1,8.1,61,0.00,FEW,,0.00,0.0,WeatherDisplay:10.37,2013-09-02 03:41:00,
2013-09-02 05:43:00,69.3,55.3,30.06,NE,49,8.0,8.0,61,0.00,FEW,,0.00,0.0,WeatherDisplay:10.37,2013-09-02 03:43:00,
2013-09-02 05:44:00,69.2,55.2,30.06,ENE,57,9.2,9.2,61,0.00,FEW,,0.00,0.0,WeatherDisplay:10.37,2013-09-02 03:44:00,
2013-09-02 05:45:00,69.2,54.7,30.06,NE,55,6.9,6.9,60,0.00,FEW,,0.00,0.0,WeatherDisplay:10.37,2013-09-02 03:45:00,
2013-09-02 05:46:00,69.2,54.7,30.06,ENE,60,7.0,7.0,60,0.00,FEW,,0.00,0.0,WeatherDisplay:10.37,2013-09-02 03:46:00,
2013-09-02 05:48:00,69.2,54.7,30.06,NNE,27,8.1,8.1,60,0.00,FEW,,0.00,0.0,WeatherDisplay:10.37,2013-09-02 03:48:00,
2013-09-02 05:49:00,69.2,54.7,30.06,NE,56,8.1,8.1,60,0.00,FEW,,0.00,0.0,WeatherDisplay:10.37,2013-09-02 03:49:00,
2013-09-02 05:50:00,69.2,54.7,30.06,NE,49,6.9,6.9,60,0.00,FEW,,0.00,0.0,WeatherDisplay:10.37,2013-09-02 03:50:00,
2013-09-02 05:51:00,69.2,54.7,30.06,NE,55,6.0,6.0,60,0.00,FEW,,0.00,0.0,WeatherDisplay:10.37,2013-09-02 03:51:00,
2013-09-02 05:53:00,69.2,55.2,30.06,ENE,59,7.0,7.0,61,0.00,FEW,,0.00,0.0,WeatherDisplay:10.37,2013-09-02 03:53:00,
2013-09-02 05:54:00,69.2,55.2,30.06,ENE,58,8.1,8.1,61,0.00,FEW,,0.00,0.0,WeatherDisplay:10.37,2013-09-02 03:54:00,
2013-09-02 05:55:00,69.1,55.1,30.06,NE,49,6.9,6.9,61,0.00,FEW,,0.00,0.0,WeatherDisplay:10.37,2013-09-02 03:55:00,
2013-09-02 05:56:00,69.1,55.1,30.06,NE,35,5.8,5.8,61,0.00,FEW,,0.00,0.0,WeatherDisplay:10.37,2013-09-02 03:56:00,
2013-09-02 05:58:00,69.1,55.1,30.06,NE,45,4.6,4.6,61,0.00,FEW,,0.00,0.0,WeatherDisplay:10.37,2013-09-02 03:58:00,
2013-09-02 05:59:00,69.1,55.1,30.06,NE,43,4.6,4.6,61,0.00,FEW,,0.00,0.0,WeatherDisplay:10.37,2013-09-02 03:59:00,
2013-09-02 06:00:00,69.0,55.0,30.06,NE,51,6.9,6.9,61,0.00,FEW,,0.00,0.0,WeatherDisplay:10.37,2013-09-02 04:00:00,
2013-09-02 06:01:00,69.0,55.0,30.06,NNE,31,6.9,6.9,61,0.00,FEW,,0.00,0.0,WeatherDisplay:10.37,2013-09-02 04:01:00,
2013-09-02 06:02:00,69.0,55.0,30.06,NE,44,5.8,5.8,61,0.00,FEW,,0.00,0.0,WeatherDisplay:10.37,2013-09-02 04:02:00,
2013-09-02 06:04:00,68.9,54.9,30.06,ENE,59,6.9,6.9,61,0.00,FEW,,0.00,0.0,WeatherDisplay:10.37,2013-09-02 04:04:00,
2013-09-02 06:06:00,68.9,54.9,30.06,NE,55,3.5,3.5,61,0.00,FEW,,0.00,0.0,WeatherDisplay:10.37,2013-09-02 04:06:00,
2013-09-02 06:07:00,68.9,54.9,30.06,NE,49,4.6,4.6,61,0.00,FEW,,0.00,0.0,WeatherDisplay:10.37,2013-09-02 04:07:00,
2013-09-02 06:10:00,68.8,54.8,30.06,ENE,67,6.9,6.9,61,0.00,FEW,,0.00,0.0,WeatherDisplay:10.37,2013-09-02 04:10:00,
2013-09-02 06:11:00,68.8,54.8,30.06,ENE,77,6.9,6.9,61,0.00,FEW,,0.00,0.0,WeatherDisplay:10.37,2013-09-02 04:11:00,
2013-09-02 06:12:00,68.8,54.8,30.06,NE,46,6.0,6.0,61,0.00,FEW,,0.00,0.0,WeatherDisplay:10.37,2013-09-02 04:12:00,
2013-09-02 06:13:00,68.8,54.8,30.06,ENE,78,5.8,5.8,61,0.00,FEW,,0.00,0.0,WeatherDisplay:10.37,2013-09-02 04:13:00,
2013-09-02 06:16:00,68.8,54.8,30.06,NE,49,5.8,5.8,61,0.00,FEW,,0.00,0.0,WeatherDisplay:10.37,2013-09-02 04:16:00,
2013-09-02 06:17:00,68.8,54.8,30.06,NE,42,5.0,5.0,61,0.00,FEW,,0.00,0.0,WeatherDisplay:10.37,2013-09-02 04:17:00,
2013-09-02 06:18:00,68.8,54.8,30.06,NE,50,5.8,5.8,61,0.00,FEW,,0.00,0.0,WeatherDisplay:10.37,2013-09-02 04:18:00,
2013-09-02 06:19:00,68.8,54.8,30.06,ENE,57,7.0,7.0,61,0.00,FEW,,0.00,0.0,WeatherDisplay:10.37,2013-09-02 04:19:00,
2013-09-02 06:22:00,68.8,54.8,30.06,NE,43,6.9,6.9,61,0.00,FEW,,0.00,0.0,WeatherDisplay:10.37,2013-09-02 04:22:00,
2013-09-02 06:23:00,68.8,54.3,30.06,NNE,32,6.9,6.9,60,0.00,FEW,,0.00,0.0,WeatherDisplay:10.37,2013-09-02 04:23:00,
2013-09-02 06:26:00,68.9,54.4,30.06,ENE,63,11.5,11.5,60,0.00,FEW,,0.00,0.0,WeatherDisplay:10.37,2013-09-02 04:26:00,
2013-09-02 06:27:00,69.0,54.5,30.06,ENE,67,11.5,11.5,60,0.00,FEW,,0.00,0.0,WeatherDisplay:10.37,2013-09-02 04:27:00,
2013-09-02 06:28:00,69.0,54.5,30.06,North,360,8.1,8.1,60,0.00,FEW,,0.00,0.0,WeatherDisplay:10.37,2013-09-02 04:28:00,
2013-09-02 06:29:00,69.0,54.5,30.06,NE,55,12.7,12.7,60,0.00,FEW,,0.00,0.0,WeatherDisplay:10.37,2013-09-02 04:29:00,
2013-09-02 06:31:00,69.1,54.6,30.06,NE,52,8.1,8.1,60,0.00,FEW,,0.00,0.0,WeatherDisplay:10.37,2013-09-02 04:31:00,
2013-09-02 06:32:00,69.2,54.7,30.06,NE,53,13.8,13.8,60,0.00,FEW,,0.00,0.0,WeatherDisplay:10.37,2013-09-02 04:32:00,
2013-09-02 06:33:00,69.2,54.7,30.06,NE,52,13.8,13.8,60,0.00,FEW,,0.00,5.0,WeatherDisplay:10.37,2013-09-02 04:33:00,
2013-09-02 06:35:00,69.3,54.4,30.06,ENE,60,11.5,11.5,59,0.00,FEW,,0.00,5.0,WeatherDisplay:10.37,2013-09-02 04:35:00,
2013-09-02 06:36:00,69.3,54.4,30.06,ENE,59,11.5,11.5,59,0.00,FEW,,0.00,5.0,WeatherDisplay:10.37,2013-09-02 04:36:00,
2013-09-02 06:37:00,69.3,54.4,30.06,NE,55,11.5,11.5,59,0.00,FEW,,0.00,7.0,WeatherDisplay:10.37,2013-09-02 04:37:00,
2013-09-02 06:38:00,69.4,54.4,30.06,NE,51,10.4,10.4,59,0.00,FEW,,0.00,9.0,WeatherDisplay:10.37,2013-09-02 04:38:00,
2013-09-02 06:39:00,69.4,54.4,30.06,ENE,66,8.1,8.1,59,0.00,FEW,,0.00,9.0,WeatherDisplay:10.37,2013-09-02 04:39:00,
2013-09-02 06:40:00,69.4,54.4,30.06,ENE,67,8.1,8.1,59,0.00,FEW,,0.00,9.0,WeatherDisplay:10.37,2013-09-02 04:40:00,
2013-09-02 06:43:00,69.4,54.4,30.06,NNE,31,10.0,10.0,59,0.00,OVC,,0.00,11.0,WeatherDisplay:10.37,2013-09-02 04:43:00,
2013-09-02 06:44:00,69.4,54.4,30.06,NE,34,12.7,12.7,59,0.00,OVC,,0.00,11.0,WeatherDisplay:10.37,2013-09-02 04:44:00,
2013-09-02 06:45:00,69.4,54.4,30.06,North,360,10.4,10.4,59,0.00,OVC,,0.00,11.0,WeatherDisplay:10.37,2013-09-02 04:45:00,
2013-09-02 06:48:00,69.5,54.5,30.06,NE,46,9.2,9.2,59,0.00,OVC,,0.00,12.0,WeatherDisplay:10.37,2013-09-02 04:48:00,
2013-09-02 06:49:00,69.5,54.5,30.06,NE,39,11.5,11.5,59,0.00,OVC,,0.00,14.0,WeatherDisplay:10.37,2013-09-02 04:49:00,
2013-09-02 06:50:00,69.5,54.5,30.06,NE,42,12.7,12.7,59,0.00,OVC,,0.00,16.0,WeatherDisplay:10.37,2013-09-02 04:50:00,
2013-09-02 06:53:00,69.6,54.2,30.06,NE,53,10.4,10.4,58,0.00,OVC,,0.00,18.0,WeatherDisplay:10.37,2013-09-02 04:53:00,
2013-09-02 06:54:00,69.6,54.2,30.06,NE,53,7.0,7.0,58,0.00,OVC,,0.00,18.0,WeatherDisplay:10.37,2013-09-02 04:54:00,
2013-09-02 06:55:00,69.6,54.2,30.06,ENE,66,9.2,9.2,58,0.00,OVC,,0.00,18.0,WeatherDisplay:10.37,2013-09-02 04:55:00,
2013-09-02 06:58:00,69.6,54.2,30.06,NE,53,5.8,5.8,58,0.00,CLR,,0.00,21.0,WeatherDisplay:10.37,2013-09-02 04:58:00,
2013-09-02 06:59:00,69.7,54.3,30.06,ENE,72,4.0,4.0,58,0.00,CLR,,0.00,25.0,WeatherDisplay:10.37,2013-09-02 04:59:00,
2013-09-02 07:00:00,69.7,54.3,30.06,East,80,6.9,6.9,58,0.00,CLR,,0.00,26.0,WeatherDisplay:10.37,2013-09-02 05:00:00,
2013-09-02 07:01:00,69.7,54.3,30.06,NE,55,8.1,8.1,58,0.00,CLR,,0.00,28.0,WeatherDisplay:10.37,2013-09-02 05:01:00,
2013-09-02 07:03:00,69.6,54.2,30.06,ENE,67,9.2,9.2,58,0.00,CLR,,0.00,26.0,WeatherDisplay:10.37,2013-09-02 05:03:00,
2013-09-02 07:04:00,69.7,54.3,30.07,NE,53,8.1,8.1,58,0.00,CLR,,0.00,32.0,WeatherDisplay:10.37,2013-09-02 05:04:00,
2013-09-02 07:05:00,69.6,54.2,30.07,NNE,29,9.2,9.2,58,0.00,CLR,,0.00,37.0,WeatherDisplay:10.37,2013-09-02 05:05:00,
2013-09-02 07:06:00,69.6,54.6,30.06,NE,53,7.0,7.0,59,0.00,CLR,,0.00,28.0,WeatherDisplay:10.37,2013-09-02 05:06:00,
2013-09-02 07:07:00,69.6,54.2,30.06,NE,56,9.2,9.2,58,0.00,CLR,,0.00,28.0,WeatherDisplay:10.37,2013-09-02 05:07:00,
2013-09-02 07:08:00,69.6,54.2,30.07,NE,35,7.0,7.0,58,0.00,CLR,,0.00,26.0,WeatherDisplay:10.37,2013-09-02 05:08:00,
2013-09-02 07:10:00,69.6,54.2,30.07,ENE,60,6.9,6.9,58,0.00,CLR,,0.00,49.0,WeatherDisplay:10.37,2013-09-02 05:10:00,
2013-09-02 07:11:00,69.7,54.3,30.07,NE,41,4.6,5.3,58,0.00,CLR,,0.00,56.0,WeatherDisplay:10.37,2013-09-02 05:11:00,
2013-09-02 07:12:00,69.7,54.3,30.07,ENE,66,6.9,6.9,58,0.00,CLR,,0.00,56.0,WeatherDisplay:10.37,2013-09-02 05:12:00,
2013-09-02 07:13:00,69.7,54.3,30.07,ENE,60,9.2,9.2,58,0.00,CLR,,0.00,62.0,WeatherDisplay:10.37,2013-09-02 05:13:00,
2013-09-02 07:16:00,69.7,54.3,30.07,NE,53,9.2,9.2,58,0.00,CLR,,0.00,63.0,WeatherDisplay:10.37,2013-09-02 05:16:00,
2013-09-02 07:17:00,69.7,54.3,30.07,East,83,5.0,5.0,58,0.00,CLR,,0.00,67.0,WeatherDisplay:10.37,2013-09-02 05:17:00,
2013-09-02 07:18:00,69.8,54.4,30.07,NE,51,5.0,5.0,58,0.00,CLR,,0.00,69.0,WeatherDisplay:10.37,2013-09-02 05:18:00,
2013-09-02 07:19:00,69.8,54.4,30.07,NE,56,6.0,6.0,58,0.00,CLR,,0.00,69.0,WeatherDisplay:10.37,2013-09-02 05:19:00,
2013-09-02 07:21:00,69.9,54.4,30.07,NE,50,4.6,4.6,58,0.00,CLR,,0.00,65.0,WeatherDisplay:10.37,2013-09-02 05:21:00,
2013-09-02 07:22:00,69.9,54.4,30.07,ENE,62,5.0,5.0,58,0.00,CLR,,0.00,65.0,WeatherDisplay:10.37,2013-09-02 05:22:00,
2013-09-02 07:23:00,69.9,54.4,30.07,ENE,69,5.0,5.0,58,0.00,CLR,,0.00,84.0,WeatherDisplay:10.37,2013-09-02 05:23:00,
2013-09-02 07:25:00,70.0,54.5,30.06,NE,47,6.9,6.9,58,0.00,CLR,,0.00,86.0,WeatherDisplay:10.37,2013-09-02 05:25:00,
2013-09-02 07:27:00,70.0,54.5,30.06,ENE,57,5.0,5.0,58,0.00,CLR,,0.00,98.0,WeatherDisplay:10.37,2013-09-02 05:27:00,
2013-09-02 07:28:00,70.0,54.5,30.06,NE,51,5.8,5.8,58,0.00,CLR,,0.00,98.0,WeatherDisplay:10.37,2013-09-02 05:28:00,
2013-09-02 07:29:00,70.0,54.5,30.06,NE,53,4.6,4.6,58,0.00,CLR,,0.00,98.0,WeatherDisplay:10.37,2013-09-02 05:29:00,
2013-09-02 07:30:00,70.1,54.6,30.07,ENE,70,4.6,4.6,58,0.00,CLR,,0.00,114.0,WeatherDisplay:10.37,2013-09-02 05:30:00,
2013-09-02 07:32:00,70.1,54.6,30.07,NNE,28,4.6,4.6,58,0.00,CLR,,0.00,121.0,WeatherDisplay:10.37,2013-09-02 05:32:00,
2013-09-02 07:33:00,70.1,54.6,30.07,NE,55,4.0,4.0,58,0.00,CLR,,0.00,123.0,WeatherDisplay:10.37,2013-09-02 05:33:00,
2013-09-02 07:34:00,70.2,54.2,30.07,ENE,59,5.8,5.8,57,0.00,CLR,,0.00,127.0,WeatherDisplay:10.37,2013-09-02 05:34:00,
2013-09-02 07:36:00,70.3,54.3,30.07,NNE,25,8.1,8.1,57,0.00,CLR,,0.00,132.0,WeatherDisplay:10.37,2013-09-02 05:36:00,
2013-09-02 07:39:00,70.4,54.4,30.07,North,360,9.2,9.2,57,0.00,CLR,,0.00,142.0,WeatherDisplay:10.37,2013-09-02 05:39:00,
2013-09-02 07:41:00,70.5,54.0,30.07,NE,51,5.8,5.8,56,0.00,CLR,,0.00,146.0,WeatherDisplay:10.37,2013-09-02 05:41:00,
2013-09-02 07:42:00,70.6,54.1,30.07,NE,51,6.9,6.9,56,0.00,CLR,,0.00,151.0,WeatherDisplay:10.37,2013-09-02 05:42:00,
2013-09-02 07:43:00,70.6,54.1,30.07,NE,38,8.1,8.1,56,0.00,CLR,,0.00,149.0,WeatherDisplay:10.37,2013-09-02 05:43:00,
2013-09-02 07:44:00,70.7,54.2,30.07,NE,49,6.9,6.9,56,0.00,CLR,,0.00,121.0,WeatherDisplay:10.37,2013-09-02 05:44:00,
2013-09-02 07:45:00,70.7,54.2,30.07,NE,46,6.0,6.0,56,0.00,CLR,,0.00,86.0,WeatherDisplay:10.37,2013-09-02 05:45:00,
2013-09-02 07:46:00,70.8,54.3,30.07,NE,55,8.1,8.1,56,0.00,CLR,,0.00,54.0,WeatherDisplay:10.37,2013-09-02 05:46:00,
2013-09-02 07:47:00,70.8,54.3,30.07,NE,42,8.0,8.0,56,0.00,CLR,,0.00,44.0,WeatherDisplay:10.37,2013-09-02 05:47:00,
2013-09-02 07:49:00,71.0,54.5,30.07,NE,38,10.0,10.0,56,0.00,CLR,,0.00,46.0,WeatherDisplay:10.37,2013-09-02 05:49:00,
2013-09-02 07:50:00,71.0,54.5,30.07,NE,36,10.4,10.4,56,0.00,FEW,,0.00,46.0,WeatherDisplay:10.37,2013-09-02 05:50:00,
2013-09-02 07:51:00,71.0,54.5,30.07,NE,47,11.5,11.5,56,0.00,FEW,,0.00,46.0,WeatherDisplay:10.37,2013-09-02 05:51:00,
2013-09-02 07:53:00,71.1,54.6,30.07,NNE,32,9.2,9.2,56,0.00,FEW,,0.00,46.0,WeatherDisplay:10.37,2013-09-02 05:53:00,
2013-09-02 07:54:00,71.2,54.7,30.07,ENE,57,10.0,10.0,56,0.00,FEW,,0.00,47.0,WeatherDisplay:10.37,2013-09-02 05:54:00,
2013-09-02 07:55:00,71.2,54.2,30.07,ENE,69,11.5,11.5,55,0.00,FEW,,0.00,47.0,WeatherDisplay:10.37,2013-09-02 05:55:00,
2013-09-02 07:56:00,71.2,54.7,30.07,NNE,22,6.9,6.9,56,0.00,FEW,,0.00,47.0,WeatherDisplay:10.37,2013-09-02 05:56:00,
2013-09-02 07:58:00,71.2,54.7,30.07,NE,42,10.4,10.4,56,0.00,FEW,,0.00,47.0,WeatherDisplay:10.37,2013-09-02 05:58:00,
2013-09-02 07:59:00,71.2,54.7,30.07,NE,54,10.4,10.4,56,0.00,FEW,,0.00,47.0,WeatherDisplay:10.37,2013-09-02 05:59:00,
2013-09-02 08:00:00,71.2,54.7,30.07,NNE,31,9.0,9.0,56,0.00,FEW,,0.00,49.0,WeatherDisplay:10.37,2013-09-02 06:00:00,
2013-09-02 08:01:00,71.2,54.7,30.07,NE,40,11.5,11.5,56,0.00,FEW,,0.00,49.0,WeatherDisplay:10.37,2013-09-02 06:01:00,
2013-09-02 08:04:00,71.2,54.2,30.07,NNE,24,9.2,9.2,55,0.00,FEW,,0.00,51.0,WeatherDisplay:10.37,2013-09-02 06:04:00,
2013-09-02 08:05:00,71.2,54.2,30.07,NE,34,10.4,10.4,55,0.00,FEW,,0.00,51.0,WeatherDisplay:10.37,2013-09-02 06:05:00,
2013-09-02 08:06:00,71.2,54.2,30.07,NNE,22,10.4,10.4,55,0.00,FEW,,0.00,51.0,WeatherDisplay:10.37,2013-09-02 06:06:00,
2013-09-02 08:07:00,71.2,54.7,30.07,NE,40,9.2,9.2,56,0.00,FEW,,0.00,51.0,WeatherDisplay:10.37,2013-09-02 06:07:00,
2013-09-02 08:08:00,71.2,54.2,30.07,NE,34,10.4,10.4,55,0.00,FEW,,0.00,51.0,WeatherDisplay:10.37,2013-09-02 06:08:00,
2013-09-02 08:09:00,71.2,54.2,30.07,NE,37,9.2,9.2,55,0.00,FEW,,0.00,142.0,WeatherDisplay:10.37,2013-09-02 06:09:00,
2013-09-02 08:10:00,71.2,54.2,30.07,NNE,27,8.1,8.1,55,0.00,FEW,,0.00,142.0,WeatherDisplay:10.37,2013-09-02 06:10:00,
2013-09-02 08:11:00,71.3,54.3,30.07,NNE,26,9.2,9.2,55,0.00,FEW,,0.00,211.0,WeatherDisplay:10.37,2013-09-02 06:11:00,
2013-09-02 08:12:00,71.3,54.3,30.07,NNE,29,8.1,8.1,55,0.00,FEW,,0.00,211.0,WeatherDisplay:10.37,2013-09-02 06:12:00,
2013-09-02 08:13:00,71.4,54.4,30.07,NNE,24,8.1,8.1,55,0.00,FEW,,0.00,244.0,WeatherDisplay:10.37,2013-09-02 06:13:00,
2013-09-02 08:14:00,71.4,53.9,30.07,NNE,23,8.1,8.1,54,0.00,FEW,,0.00,244.0,WeatherDisplay:10.37,2013-09-02 06:14:00,
2013-09-02 08:15:00,71.4,53.9,30.07,NNE,28,6.9,6.9,54,0.00,FEW,,0.00,244.0,WeatherDisplay:10.37,2013-09-02 06:15:00,
2013-09-02 08:16:00,71.4,53.9,30.07,NNE,31,6.9,6.9,54,0.00,FEW,,0.00,251.0,WeatherDisplay:10.37,2013-09-02 06:16:00,
2013-09-02 08:18:00,71.5,54.0,30.07,ENE,57,6.9,6.9,54,0.00,CLR,,0.00,257.0,WeatherDisplay:10.37,2013-09-02 06:18:00,
2013-09-02 08:19:00,71.6,54.1,30.07,NE,47,4.0,4.0,54,0.00,CLR,,0.00,264.0,WeatherDisplay:10.37,2013-09-02 06:19:00,
2013-09-02 08:20:00,71.6,53.6,30.07,NNE,26,8.1,8.1,53,0.00,CLR,,0.00,265.0,WeatherDisplay:10.37,2013-09-02 06:20:00,
2013-09-02 08:21:00,71.7,53.7,30.07,NE,41,5.8,5.8,53,0.00,CLR,,0.00,265.0,WeatherDisplay:10.37,2013-09-02 06:21:00,
2013-09-02 08:24:00,71.9,53.8,30.08,NE,45,3.5,3.5,53,0.00,CLR,,0.00,278.0,WeatherDisplay:10.37,2013-09-02 06:24:00,
2013-09-02 08:25:00,71.9,53.8,30.08,NE,45,3.5,3.5,53,0.00,CLR,,0.00,283.0,WeatherDisplay:10.37,2013-09-02 06:25:00,
2013-09-02 08:26:00,72.0,53.9,30.07,NE,51,5.0,5.0,53,0.00,CLR,,0.00,287.0,WeatherDisplay:10.37,2013-09-02 06:26:00,
2013-09-02 08:27:00,72.1,54.0,30.08,ENE,61,4.6,4.6,53,0.00,CLR,,0.00,290.0,WeatherDisplay:10.37,2013-09-02 06:27:00,
2013-09-02 08:29:00,72.2,54.1,30.08,ENE,69,3.5,4.2,53,0.00,CLR,,0.00,297.0,WeatherDisplay:10.37,2013-09-02 06:29:00,
2013-09-02 08:30:00,72.3,54.2,30.08,ENE,71,8.1,8.1,53,0.00,CLR,,0.00,299.0,WeatherDisplay:10.37,2013-09-02 06:30:00,
2013-09-02 08:31:00,72.3,54.2,30.08,ENE,69,4.6,4.6,53,0.00,CLR,,0.00,302.0,WeatherDisplay:10.37,2013-09-02 06:31:00,
2013-09-02 08:32:00,72.5,54.4,30.08,NE,55,4.0,4.0,53,0.00,CLR,,0.00,306.0,WeatherDisplay:10.37,2013-09-02 06:32:00,
2013-09-02 08:35:00,72.6,54.0,30.08,ENE,66,4.6,4.6,52,0.00,CLR,,0.00,313.0,WeatherDisplay:10.37,2013-09-02 06:35:00,
2013-09-02 08:36:00,72.7,54.1,30.08,NE,39,4.6,4.6,52,0.00,CLR,,0.00,313.0,WeatherDisplay:10.37,2013-09-02 06:36:00,
2013-09-02 08:38:00,72.9,54.2,30.08,ENE,61,5.0,5.7,52,0.00,CLR,,0.00,320.0,WeatherDisplay:10.37,2013-09-02 06:38:00,
2013-09-02 08:40:00,73.0,54.3,30.08,NE,42,9.2,9.2,52,0.00,CLR,,0.00,330.0,WeatherDisplay:10.37,2013-09-02 06:40:00,
2013-09-02 08:41:00,73.0,54.3,30.08,ENE,58,9.2,9.2,52,0.00,CLR,,0.00,332.0,WeatherDisplay:10.37,2013-09-02 06:41:00,
2013-09-02 08:44:00,73.2,54.0,30.08,ENE,59,10.4,10.4,51,0.00,CLR,,0.00,339.0,WeatherDisplay:10.37,2013-09-02 06:44:00,
2013-09-02 08:46:00,73.2,54.0,30.08,East,79,9.2,9.2,51,0.00,CLR,,0.00,343.0,WeatherDisplay:10.37,2013-09-02 06:46:00,
2013-09-02 08:50:00,73.5,54.8,30.08,NE,39,9.2,9.2,52,0.00,CLR,,0.00,357.0,WeatherDisplay:10.37,2013-09-02 06:50:00,
2013-09-02 08:51:00,73.5,54.8,30.08,NE,42,9.2,9.2,52,0.00,CLR,,0.00,360.0,WeatherDisplay:10.37,2013-09-02 06:51:00,
2013-09-02 08:52:00,73.5,54.8,30.08,NE,34,9.0,9.0,52,0.00,CLR,,0.00,362.0,WeatherDisplay:10.37,2013-09-02 06:52:00,
2013-09-02 08:53:00,73.5,55.3,30.08,ENE,76,8.1,8.1,53,0.00,CLR,,0.00,367.0,WeatherDisplay:10.37,2013-09-02 06:53:00,
2013-09-02 08:55:00,73.5,55.3,30.08,NE,40,10.0,10.0,53,0.00,CLR,,0.00,367.0,WeatherDisplay:10.37,2013-09-02 06:55:00,
2013-09-02 08:56:00,73.4,55.2,30.08,NE,42,8.0,8.0,53,0.00,CLR,,0.00,378.0,WeatherDisplay:10.37,2013-09-02 06:56:00,
2013-09-02 08:57:00,73.4,55.2,30.08,NE,49,11.5,11.5,53,0.00,CLR,,0.00,378.0,WeatherDisplay:10.37,2013-09-02 06:57:00,
2013-09-02 09:00:00,73.4,54.7,30.08,NE,49,10.4,10.4,52,0.00,CLR,,0.00,388.0,WeatherDisplay:10.37,2013-09-02 07:00:00,
2013-09-02 09:01:00,73.4,54.7,30.08,NE,42,10.4,10.4,52,0.00,CLR,,0.00,390.0,WeatherDisplay:10.37,2013-09-02 07:01:00,
2013-09-02 09:02:00,73.4,54.7,30.08,NNE,22,8.1,8.1,52,0.00,CLR,,0.00,396.0,WeatherDisplay:10.37,2013-09-02 07:02:00,
2013-09-02 09:03:00,73.4,54.2,30.08,NE,51,8.1,8.1,51,0.00,CLR,,0.00,396.0,WeatherDisplay:10.37,2013-09-02 07:03:00,
2013-09-02 09:06:00,73.5,55.3,30.08,NNE,24,10.4,10.4,53,0.00,CLR,,0.00,399.0,WeatherDisplay:10.37,2013-09-02 07:06:00,
2013-09-02 09:08:00,73.4,54.7,30.08,NE,55,11.5,11.5,52,0.00,CLR,,0.00,406.0,WeatherDisplay:10.37,2013-09-02 07:08:00,
2013-09-02 09:10:00,73.4,54.7,30.08,NE,39,8.1,8.1,52,0.00,CLR,,0.00,415.0,WeatherDisplay:10.37,2013-09-02 07:10:00,
2013-09-02 09:11:00,73.4,54.7,30.09,NE,56,12.7,12.7,52,0.00,CLR,,0.00,418.0,WeatherDisplay:10.37,2013-09-02 07:11:00,
2013-09-02 09:13:00,73.5,54.8,30.09,NE,38,11.5,11.5,52,0.00,CLR,,0.00,422.0,WeatherDisplay:10.37,2013-09-02 07:13:00,
2013-09-02 09:14:00,73.5,54.8,30.09,ENE,63,8.0,8.0,52,0.00,CLR,,0.00,425.0,WeatherDisplay:10.37,2013-09-02 07:14:00,
2013-09-02 09:15:00,73.6,54.4,30.09,NE,38,8.1,8.1,51,0.00,CLR,,0.00,431.0,WeatherDisplay:10.37,2013-09-02 07:15:00,
2013-09-02 09:16:00,73.7,54.4,30.09,NNE,32,11.5,11.5,51,0.00,CLR,,0.00,434.0,WeatherDisplay:10.37,2013-09-02 07:16:00,
2013-09-02 09:17:00,73.7,54.4,30.09,ENE,59,11.5,11.5,51,0.00,CLR,,0.00,436.0,WeatherDisplay:10.37,2013-09-02 07:17:00,
2013-09-02 09:18:00,73.8,55.1,30.08,ENE,62,10.4,10.4,52,0.00,CLR,,0.00,438.0,WeatherDisplay:10.37,2013-09-02 07:18:00,
2013-09-02 09:19:00,73.8,55.1,30.09,NNW,344,9.2,9.2,52,0.00,CLR,,0.00,441.0,WeatherDisplay:10.37,2013-09-02 07:19:00,
2013-09-02 09:21:00,73.9,55.2,30.09,NNE,12,11.5,11.5,52,0.00,CLR,,0.00,448.0,WeatherDisplay:10.37,2013-09-02 07:21:00,
2013-09-02 09:22:00,74.0,55.3,30.09,NNW,343,9.2,9.2,52,0.00,CLR,,0.00,448.0,WeatherDisplay:10.37,2013-09-02 07:22:00,
2013-09-02 09:23:00,74.1,55.3,30.09,ENE,68,8.0,8.0,52,0.00,CLR,,0.00,454.0,WeatherDisplay:10.37,2013-09-02 07:23:00,
2013-09-02 09:24:00,74.1,54.8,30.09,NE,55,10.0,10.0,51,0.00,CLR,,0.00,455.0,WeatherDisplay:10.37,2013-09-02 07:24:00,
2013-09-02 09:27:00,74.2,54.9,30.09,NE,52,8.1,8.1,51,0.00,CLR,,0.00,462.0,WeatherDisplay:10.37,2013-09-02 07:27:00,
2013-09-02 09:28:00,74.3,55.0,30.09,NNE,32,8.1,8.1,51,0.00,CLR,,0.00,468.0,WeatherDisplay:10.37,2013-09-02 07:28:00,
2013-09-02 09:29:00,74.3,55.0,30.09,NE,43,9.2,9.2,51,0.00,CLR,,0.00,468.0,WeatherDisplay:10.37,2013-09-02 07:29:00,
2013-09-02 09:30:00,74.3,55.0,30.09,NE,47,10.4,10.4,51,0.00,CLR,,0.00,468.0,WeatherDisplay:10.37,2013-09-02 07:30:00,
2013-09-02 09:32:00,74.5,54.6,30.09,ENE,57,10.4,10.4,50,0.00,CLR,,0.00,478.0,WeatherDisplay:10.37,2013-09-02 07:32:00,
2013-09-02 09:33:00,74.5,54.6,30.09,ENE,73,11.5,11.5,50,0.00,CLR,,0.00,478.0,WeatherDisplay:10.37,2013-09-02 07:33:00,
2013-09-02 09:34:00,74.7,54.8,30.09,NE,55,9.2,9.2,50,0.00,CLR,,0.00,483.0,WeatherDisplay:10.37,2013-09-02 07:34:00,
2013-09-02 09:35:00,74.7,54.8,30.09,ENE,63,9.2,9.2,50,0.00,CLR,,0.00,487.0,WeatherDisplay:10.37,2013-09-02 07:35:00,
2013-09-02 09:36:00,74.8,54.9,30.09,ENE,74,9.2,9.2,50,0.00,CLR,,0.00,489.0,WeatherDisplay:10.37,2013-09-02 07:36:00,
2013-09-02 09:37:00,75.0,54.5,30.09,East,101,8.1,8.1,49,0.00,CLR,,0.00,489.0,WeatherDisplay:10.37,2013-09-02 07:37:00,
2013-09-02 09:38:00,75.1,54.6,30.09,ENE,61,10.4,10.4,49,0.00,CLR,,0.00,494.0,WeatherDisplay:10.37,2013-09-02 07:38:00,
2013-09-02 09:39:00,75.2,54.7,30.09,ENE,77,7.0,7.0,49,0.00,CLR,,0.00,499.0,WeatherDisplay:10.37,2013-09-02 07:39:00,
2013-09-02 09:40:00,75.3,54.8,30.09,NE,48,8.1,8.1,49,0.00,CLR,,0.00,501.0,WeatherDisplay:10.37,2013-09-02 07:40:00,
2013-09-02 09:42:00,75.6,55.1,30.09,NE,50,5.0,5.0,49,0.00,CLR,,0.00,501.0,WeatherDisplay:10.37,2013-09-02 07:42:00,
2013-09-02 09:44:00,75.9,54.8,30.10,ENE,64,8.1,8.1,48,0.00,CLR,,0.00,513.0,WeatherDisplay:10.37,2013-09-02 07:44:00,
2013-09-02 09:45:00,75.9,54.8,30.10,ENE,69,8.1,8.1,48,0.00,CLR,,0.00,513.0,WeatherDisplay:10.37,2013-09-02 07:45:00,
2013-09-02 09:46:00,76.1,55.0,30.10,NE,44,9.0,9.0,48,0.00,CLR,,0.00,513.0,WeatherDisplay:10.37,2013-09-02 07:46:00,
2013-09-02 09:47:00,76.3,55.2,30.10,NE,36,10.4,10.4,48,0.00,CLR,,0.00,520.0,WeatherDisplay:10.37,2013-09-02 07:47:00,
2013-09-02 09:48:00,76.3,55.2,30.10,NNE,30,10.4,10.4,48,0.00,CLR,,0.00,520.0,WeatherDisplay:10.37,2013-09-02 07:48:00,
2013-09-02 09:49:00,76.4,54.7,30.10,NE,37,10.4,10.4,47,0.00,CLR,,0.00,520.0,WeatherDisplay:10.37,2013-09-02 07:49:00,
2013-09-02 09:50:00,76.5,55.3,30.10,NE,34,12.0,12.0,48,0.00,CLR,,0.00,531.0,WeatherDisplay:10.37,2013-09-02 07:50:00,
2013-09-02 09:51:00,76.5,54.8,30.10,NE,35,11.5,11.5,47,0.00,CLR,,0.00,531.0,WeatherDisplay:10.37,2013-09-02 07:51:00,
2013-09-02 09:52:00,76.5,55.3,30.10,North,5,8.1,8.1,48,0.00,CLR,,0.00,534.0,WeatherDisplay:10.37,2013-09-02 07:52:00,
2013-09-02 09:54:00,76.6,54.9,30.10,NNE,28,11.5,11.5,47,0.00,CLR,,0.00,541.0,WeatherDisplay:10.37,2013-09-02 07:54:00,
2013-09-02 09:55:00,76.6,54.9,30.10,NE,39,8.1,8.1,47,0.00,CLR,,0.00,541.0,WeatherDisplay:10.37,2013-09-02 07:55:00,
2013-09-02 09:56:00,76.7,55.0,30.10,NE,42,9.2,9.2,47,0.00,CLR,,0.00,545.0,WeatherDisplay:10.37,2013-09-02 07:56:00,
2013-09-02 09:57:00,76.8,55.0,30.10,ENE,73,11.5,11.5,47,0.00,CLR,,0.00,548.0,WeatherDisplay:10.37,2013-09-02 07:57:00,
2013-09-02 10:00:00,76.8,54.5,30.10,ENE,66,9.2,9.2,46,0.00,CLR,,0.00,555.0,WeatherDisplay:10.37,2013-09-02 08:00:00,
2013-09-02 10:01:00,76.8,54.5,30.10,ENE,63,9.2,9.2,46,0.00,CLR,,0.00,555.0,WeatherDisplay:10.37,2013-09-02 08:01:00,
2013-09-02 10:02:00,76.8,54.5,30.10,East,85,8.1,8.1,46,0.00,CLR,,0.00,559.0,WeatherDisplay:10.37,2013-09-02 08:02:00,
2013-09-02 10:03:00,77.0,54.0,30.10,East,80,12.7,12.7,45,0.00,CLR,,0.00,561.0,WeatherDisplay:10.37,2013-09-02 08:03:00,
2013-09-02 10:06:00,77.1,54.1,30.10,ENE,70,11.5,11.5,45,0.00,CLR,,0.00,564.0,WeatherDisplay:10.37,2013-09-02 08:06:00,
2013-09-02 10:07:00,77.1,54.1,30.10,ENE,70,10.4,10.4,45,0.00,CLR,,0.00,570.0,WeatherDisplay:10.37,2013-09-02 08:07:00,
2013-09-02 10:08:00,77.1,54.1,30.10,ENE,71,10.4,10.4,45,0.00,CLR,,0.00,573.0,WeatherDisplay:10.37,2013-09-02 08:08:00,
2013-09-02 10:11:00,77.3,54.3,30.10,East,92,8.1,8.1,45,0.00,CLR,,0.00,580.0,WeatherDisplay:10.37,2013-09-02 08:11:00,
2013-09-02 10:12:00,77.3,54.3,30.10,ESE,118,8.1,8.1,45,0.00,CLR,,0.00,580.0,WeatherDisplay:10.37,2013-09-02 08:12:00,
2013-09-02 10:13:00,77.5,54.5,30.10,East,87,6.9,6.9,45,0.00,CLR,,0.00,585.0,WeatherDisplay:10.37,2013-09-02 08:13:00,
2013-09-02 10:14:00,77.7,54.7,30.10,East,93,6.9,6.9,45,0.00,CLR,,0.00,587.0,WeatherDisplay:10.37,2013-09-02 08:14:00,
2013-09-02 10:15:00,77.9,54.8,30.10,ESE,107,9.2,9.2,45,0.00,CLR,,0.00,587.0,WeatherDisplay:10.37,2013-09-02 08:15:00,
2013-09-02 10:16:00,78.1,55.0,30.10,ENE,77,9.2,9.2,45,0.00,CLR,,0.00,591.0,WeatherDisplay:10.37,2013-09-02 08:16:00,
2013-09-02 10:17:00,78.1,55.0,30.10,East,89,9.2,9.2,45,0.00,CLR,,0.00,592.0,WeatherDisplay:10.37,2013-09-02 08:17:00,
2013-09-02 10:18:00,78.4,55.3,30.10,East,88,6.9,6.9,45,0.00,CLR,,0.00,592.0,WeatherDisplay:10.37,2013-09-02 08:18:00,
2013-09-02 10:20:00,78.6,55.5,30.10,ENE,61,8.0,8.0,45,0.00,CLR,,0.00,598.0,WeatherDisplay:10.37,2013-09-02 08:20:00,
2013-09-02 10:22:00,78.8,55.0,30.10,ENE,65,11.5,11.5,44,0.00,CLR,,0.00,613.0,WeatherDisplay:10.37,2013-09-02 08:22:00,
2013-09-02 10:23:00,78.9,54.5,30.11,East,81,9.2,9.2,43,0.00,CLR,,0.00,608.0,WeatherDisplay:10.37,2013-09-02 08:23:00,
2013-09-02 10:24:00,78.9,54.5,30.11,East,97,9.2,9.2,43,0.00,CLR,,0.00,608.0,WeatherDisplay:10.37,2013-09-02 08:24:00,
2013-09-02 10:25:00,79.0,55.2,30.11,East,95,9.2,9.2,44,0.00,CLR,,0.00,608.0,WeatherDisplay:10.37,2013-09-02 08:25:00,
2013-09-02 10:26:00,79.0,55.2,30.11,ENE,76,8.1,8.1,44,0.00,CLR,,0.00,608.0,WeatherDisplay:10.37,2013-09-02 08:26:00,
2013-09-02 10:27:00,79.1,55.3,30.10,East,80,9.0,9.0,44,0.00,CLR,,0.00,613.0,WeatherDisplay:10.37,2013-09-02 08:27:00,
2013-09-02 10:28:00,79.1,55.3,30.11,NE,49,11.5,11.5,44,0.00,CLR,,0.00,615.0,WeatherDisplay:10.37,2013-09-02 08:28:00,
2013-09-02 10:29:00,79.1,55.3,30.11,ENE,59,9.2,9.2,44,0.00,CLR,,0.00,615.0,WeatherDisplay:10.37,2013-09-02 08:29:00,
2013-09-02 10:30:00,79.1,55.3,30.11,East,82,10.4,10.4,44,0.00,CLR,,0.00,615.0,WeatherDisplay:10.37,2013-09-02 08:30:00,
2013-09-02 10:31:00,79.0,55.2,30.11,ENE,76,12.7,12.7,44,0.00,CLR,,0.00,624.0,WeatherDisplay:10.37,2013-09-02 08:31:00,
2013-09-02 10:32:00,79.0,55.2,30.11,NE,53,12.7,12.7,44,0.00,CLR,,0.00,624.0,WeatherDisplay:10.37,2013-09-02 08:32:00,
2013-09-02 10:33:00,78.9,55.1,30.11,East,100,9.2,9.2,44,0.00,CLR,,0.00,624.0,WeatherDisplay:10.37,2013-09-02 08:33:00,
2013-09-02 10:34:00,78.9,55.1,30.11,ENE,69,8.1,8.1,44,0.00,CLR,,0.00,629.0,WeatherDisplay:10.37,2013-09-02 08:34:00,
2013-09-02 10:36:00,78.9,55.1,30.11,NE,46,8.1,8.1,44,0.00,CLR,,0.00,631.0,WeatherDisplay:10.37,2013-09-02 08:36:00,
2013-09-02 10:37:00,79.1,55.9,30.11,NE,53,6.0,6.0,45,0.00,CLR,,0.00,635.0,WeatherDisplay:10.37,2013-09-02 08:37:00,
2013-09-02 10:38:00,79.2,55.4,30.11,East,94,9.2,9.2,44,0.00,CLR,,0.00,636.0,WeatherDisplay:10.37,2013-09-02 08:38:00,
2013-09-02 10:39:00,79.3,55.5,30.11,East,101,9.2,9.2,44,0.00,CLR,,0.00,636.0,WeatherDisplay:10.37,2013-09-02 08:39:00,
2013-09-02 10:41:00,79.5,55.7,30.11,ENE,74,5.8,5.8,44,0.00,CLR,,0.00,645.0,WeatherDisplay:10.37,2013-09-02 08:41:00,
2013-09-02 10:43:00,79.7,55.9,30.11,East,89,7.0,7.0,44,0.00,CLR,,0.00,649.0,WeatherDisplay:10.37,2013-09-02 08:43:00,
2013-09-02 10:44:00,79.8,55.9,30.11,East,82,9.0,9.0,44,0.00,CLR,,0.00,649.0,WeatherDisplay:10.37,2013-09-02 08:44:00,
2013-09-02 10:47:00,79.9,55.4,30.10,East,87,9.2,9.2,43,0.00,CLR,,0.00,659.0,WeatherDisplay:10.37,2013-09-02 08:47:00,
2013-09-02 10:48:00,79.9,55.4,30.10,ENE,76,9.2,9.2,43,0.00,CLR,,0.00,659.0,WeatherDisplay:10.37,2013-09-02 08:48:00,
2013-09-02 10:49:00,79.9,55.4,30.11,East,94,10.4,10.4,43,0.00,CLR,,0.00,659.0,WeatherDisplay:10.37,2013-09-02 08:49:00,
2013-09-02 10:53:00,80.1,55.6,30.11,NE,56,6.9,6.9,43,0.00,CLR,,0.00,668.0,WeatherDisplay:10.37,2013-09-02 08:53:00,
2013-09-02 10:54:00,80.1,55.6,30.11,East,96,5.8,5.8,43,0.00,CLR,,0.00,668.0,WeatherDisplay:10.37,2013-09-02 08:54:00,
2013-09-02 10:55:00,80.3,55.1,30.11,ESE,113,4.6,4.6,42,0.00,CLR,,0.00,668.0,WeatherDisplay:10.37,2013-09-02 08:55:00,
2013-09-02 10:59:00,80.6,55.4,30.11,ESE,109,8.1,8.1,42,0.00,CLR,,0.00,677.0,WeatherDisplay:10.37,2013-09-02 08:59:00,
2013-09-02 11:00:00,80.6,55.4,30.11,ENE,61,6.9,6.9,42,0.00,CLR,,0.00,677.0,WeatherDisplay:10.37,2013-09-02 09:00:00,
2013-09-02 11:01:00,80.6,55.4,30.11,East,88,8.1,8.1,42,0.00,CLR,,0.00,677.0,WeatherDisplay:10.37,2013-09-02 09:01:00,
2013-09-02 11:02:00,80.6,55.4,30.11,ESE,111,6.9,6.9,42,0.00,CLR,,0.00,680.0,WeatherDisplay:10.37,2013-09-02 09:02:00,
2013-09-02 11:04:00,80.9,55.7,30.10,ENE,60,3.5,0.0,42,0.00,CLR,,0.00,684.0,WeatherDisplay:10.37,2013-09-02 09:04:00,
2013-09-02 11:05:00,81.1,55.8,30.10,ESE,104,6.9,6.9,42,0.00,CLR,,0.00,684.0,WeatherDisplay:10.37,2013-09-02 09:05:00,
2013-09-02 11:06:00,81.1,55.8,30.10,SE,124,6.9,6.9,42,0.00,CLR,,0.00,687.0,WeatherDisplay:10.37,2013-09-02 09:06:00,
2013-09-02 11:07:00,81.3,55.3,30.10,NE,50,7.0,7.0,41,0.00,CLR,,0.00,689.0,WeatherDisplay:10.37,2013-09-02 09:07:00,
2013-09-02 11:08:00,81.3,55.3,30.10,NE,53,6.9,6.9,41,0.00,CLR,,0.00,689.0,WeatherDisplay:10.37,2013-09-02 09:08:00,
2013-09-02 11:09:00,81.3,55.3,30.11,NE,45,6.0,6.0,41,0.00,CLR,,0.00,689.0,WeatherDisplay:10.37,2013-09-02 09:09:00,
2013-09-02 11:10:00,81.3,55.3,30.10,NE,51,4.0,4.7,41,0.00,CLR,,0.00,689.0,WeatherDisplay:10.37,2013-09-02 09:10:00,
2013-09-02 11:11:00,81.3,55.3,30.10,ENE,61,5.8,5.8,41,0.00,CLR,,0.00,696.0,WeatherDisplay:10.37,2013-09-02 09:11:00,
2013-09-02 11:14:00,81.5,54.8,30.10,SE,128,9.2,9.2,40,0.00,CLR,,0.00,698.0,WeatherDisplay:10.37,2013-09-02 09:14:00,
2013-09-02 11:15:00,81.6,55.6,30.10,SE,132,6.9,6.9,41,0.00,CLR,,0.00,698.0,WeatherDisplay:10.37,2013-09-02 09:15:00,
2013-09-02 11:16:00,81.6,54.9,30.10,East,90,6.9,6.9,40,0.00,CLR,,0.00,698.0,WeatherDisplay:10.37,2013-09-02 09:16:00,
2013-09-02 11:20:00,81.9,55.2,30.10,East,98,6.9,6.9,40,0.00,CLR,,0.00,712.0,WeatherDisplay:10.37,2013-09-02 09:20:00,
2013-09-02 11:21:00,81.9,55.2,30.10,East,86,6.9,6.9,40,0.00,CLR,,0.00,715.0,WeatherDisplay:10.37,2013-09-02 09:21:00,
2013-09-02 11:22:00,82.0,55.3,30.10,East,80,6.0,6.0,40,0.00,CLR,,0.00,717.0,WeatherDisplay:10.37,2013-09-02 09:22:00,
2013-09-02 11:25:00,82.2,55.5,30.10,ESE,113,8.1,8.1,40,0.00,CLR,,0.00,717.0,WeatherDisplay:10.37,2013-09-02 09:25:00,
2013-09-02 11:26:00,82.2,55.5,30.10,ESE,123,8.1,8.1,40,0.00,CLR,,0.00,721.0,WeatherDisplay:10.37,2013-09-02 09:26:00,
2013-09-02 11:27:00,82.3,55.6,30.10,ESE,106,9.2,9.2,40,0.00,CLR,,0.00,721.0,WeatherDisplay:10.37,2013-09-02 09:27:00,
2013-09-02 11:30:00,82.3,54.9,30.10,ENE,78,6.9,6.9,39,0.00,CLR,,0.00,728.0,WeatherDisplay:10.37,2013-09-02 09:30:00,
2013-09-02 11:31:00,82.3,54.9,30.10,ESE,122,6.9,6.9,39,0.00,CLR,,0.00,728.0,WeatherDisplay:10.37,2013-09-02 09:31:00,
2013-09-02 11:33:00,82.4,55.0,30.10,SE,129,8.1,8.1,39,0.00,CLR,,0.00,729.0,WeatherDisplay:10.37,2013-09-02 09:33:00,
2013-09-02 11:36:00,82.6,54.4,30.10,East,94,8.1,8.1,38,0.00,CLR,,0.00,733.0,WeatherDisplay:10.37,2013-09-02 09:36:00,
2013-09-02 11:37:00,82.6,54.4,30.10,East,98,6.9,6.9,38,0.00,CLR,,0.00,733.0,WeatherDisplay:10.37,2013-09-02 09:37:00,
2013-09-02 11:38:00,82.7,54.5,30.10,East,98,6.9,6.9,38,0.00,CLR,,0.00,733.0,WeatherDisplay:10.37,2013-09-02 09:38:00,
2013-09-02 11:40:00,82.7,55.2,30.10,SE,126,6.0,6.0,39,0.00,CLR,,0.00,735.0,WeatherDisplay:10.37,2013-09-02 09:40:00,
2013-09-02 11:41:00,82.8,54.6,30.10,SE,128,6.9,6.9,38,0.00,CLR,,0.00,735.0,WeatherDisplay:10.37,2013-09-02 09:41:00,
2013-09-02 11:43:00,83.0,54.8,30.10,ESE,106,8.1,8.1,38,0.00,CLR,,0.00,735.0,WeatherDisplay:10.37,2013-09-02 09:43:00,
2013-09-02 11:45:00,83.1,54.9,30.10,East,96,8.0,8.0,38,0.00,CLR,,0.00,735.0,WeatherDisplay:10.37,2013-09-02 09:45:00,
2013-09-02 11:46:00,83.1,54.9,30.10,East,83,8.1,8.1,38,0.00,CLR,,0.00,534.0,WeatherDisplay:10.37,2013-09-02 09:46:00,
2013-09-02 11:48:00,83.3,55.0,30.10,SE,128,5.0,5.0,38,0.00,CLR,,0.00,557.0,WeatherDisplay:10.37,2013-09-02 09:48:00,
2013-09-02 11:50:00,83.3,55.0,30.10,SE,134,8.1,8.1,38,0.00,CLR,,0.00,745.0,WeatherDisplay:10.37,2013-09-02 09:50:00,
2013-09-02 11:51:00,83.5,55.2,30.10,SE,140,4.6,4.6,38,0.00,CLR,,0.00,747.0,WeatherDisplay:10.37,2013-09-02 09:51:00,
2013-09-02 11:52:00,83.6,54.6,30.10,SE,146,4.6,4.6,37,0.00,CLR,,0.00,747.0,WeatherDisplay:10.37,2013-09-02 09:52:00,
2013-09-02 11:54:00,83.9,55.6,30.10,East,88,6.9,6.9,38,0.00,CLR,,0.00,749.0,WeatherDisplay:10.37,2013-09-02 09:54:00,
2013-09-02 11:55:00,83.9,54.8,30.10,East,79,6.9,6.9,37,0.00,CLR,,0.00,749.0,WeatherDisplay:10.37,2013-09-02 09:55:00,
2013-09-02 11:56:00,83.9,54.8,30.10,SE,129,4.6,4.6,37,0.00,CLR,,0.00,749.0,WeatherDisplay:10.37,2013-09-02 09:56:00,
2013-09-02 11:57:00,84.0,54.9,30.10,ESE,102,4.6,4.6,37,0.00,CLR,,0.00,756.0,WeatherDisplay:10.37,2013-09-02 09:57:00,
2013-09-02 12:00:00,84.1,54.3,30.10,SSW,192,3.5,0.0,36,0.00,CLR,,0.00,758.0,WeatherDisplay:10.37,2013-09-02 10:00:00,
2013-09-02 12:01:00,84.3,55.2,30.10,SSE,168,0.0,1.6,37,0.00,CLR,,0.00,758.0,WeatherDisplay:10.37,2013-09-02 10:01:00,
2013-09-02 12:02:00,84.4,55.3,30.10,SSE,157,3.5,3.5,37,0.00,CLR,,0.00,758.0,WeatherDisplay:10.37,2013-09-02 10:02:00,
2013-09-02 12:05:00,84.8,55.6,30.10,ENE,74,7.0,7.0,37,0.00,CLR,,0.00,761.0,WeatherDisplay:10.37,2013-09-02 10:05:00,
2013-09-02 12:06:00,84.9,55.7,30.10,East,91,7.0,7.0,37,0.00,CLR,,0.00,761.0,WeatherDisplay:10.37,2013-09-02 10:06:00,
2013-09-02 12:07:00,84.9,55.7,30.10,ENE,67,8.1,8.1,37,0.00,CLR,,0.00,761.0,WeatherDisplay:10.37,2013-09-02 10:07:00,
2013-09-02 12:08:00,84.8,55.6,30.10,ENE,71,10.4,10.4,37,0.00,CLR,,0.00,765.0,WeatherDisplay:10.37,2013-09-02 10:08:00,
2013-09-02 12:09:00,84.7,54.8,30.10,ESE,122,6.9,6.9,36,0.00,CLR,,0.00,765.0,WeatherDisplay:10.37,2013-09-02 10:09:00,
2013-09-02 12:10:00,84.5,54.6,30.10,ENE,64,8.1,8.1,36,0.00,CLR,,0.00,765.0,WeatherDisplay:10.37,2013-09-02 10:10:00,
2013-09-02 12:12:00,84.4,55.3,30.09,ENE,76,9.2,9.2,37,0.00,CLR,,0.00,766.0,WeatherDisplay:10.37,2013-09-02 10:12:00,
2013-09-02 12:13:00,84.3,55.2,30.10,NE,38,6.9,6.9,37,0.00,CLR,,0.00,768.0,WeatherDisplay:10.37,2013-09-02 10:13:00,
2013-09-02 12:15:00,84.1,55.0,30.09,NNE,28,0.0,0.0,37,0.00,CLR,,0.00,768.0,WeatherDisplay:10.37,2013-09-02 10:15:00,
2013-09-02 12:16:00,83.8,54.7,30.10,ESE,123,0.0,0.0,37,0.00,CLR,,0.00,768.0,WeatherDisplay:10.37,2013-09-02 10:16:00,
2013-09-02 12:18:00,83.8,55.5,30.10,SE,138,3.5,3.5,38,0.00,CLR,,0.00,772.0,WeatherDisplay:10.37,2013-09-02 10:18:00,
2013-09-02 12:19:00,83.9,54.8,30.10,SSE,159,3.5,3.5,37,0.00,CLR,,0.00,772.0,WeatherDisplay:10.37,2013-09-02 10:19:00,
2013-09-02 12:21:00,84.1,55.0,30.09,ESE,107,0.0,0.0,37,0.00,CLR,,0.00,772.0,WeatherDisplay:10.37,2013-09-02 10:21:00,
2013-09-02 12:23:00,84.5,55.4,30.10,ENE,57,7.0,7.0,37,0.00,CLR,,0.00,775.0,WeatherDisplay:10.37,2013-09-02 10:23:00,
2013-09-02 12:24:00,84.5,55.4,30.10,NE,40,6.9,6.9,37,0.00,CLR,,0.00,775.0,WeatherDisplay:10.37,2013-09-02 10:24:00,
2013-09-02 12:26:00,84.5,55.4,30.09,NE,50,4.6,4.6,37,0.00,CLR,,0.00,779.0,WeatherDisplay:10.37,2013-09-02 10:26:00,
2013-09-02 12:28:00,84.4,55.3,30.09,ENE,57,0.0,0.0,37,0.00,CLR,,0.00,779.0,WeatherDisplay:10.37,2013-09-02 10:28:00,
2013-09-02 12:29:00,84.3,55.2,30.09,East,88,1.2,1.2,37,0.00,CLR,,0.00,779.0,WeatherDisplay:10.37,2013-09-02 10:29:00,
2013-09-02 12:32:00,84.6,55.5,30.09,ESE,114,0.0,0.0,37,0.00,CLR,,0.00,777.0,WeatherDisplay:10.37,2013-09-02 10:32:00,
2013-09-02 12:33:00,84.7,55.5,30.09,WSW,257,0.0,0.0,37,0.00,CLR,,0.00,780.0,WeatherDisplay:10.37,2013-09-02 10:33:00,
2013-09-02 12:35:00,85.0,55.8,30.10,NNW,346,3.5,3.5,37,0.00,CLR,,0.00,780.0,WeatherDisplay:10.37,2013-09-02 10:35:00,
2013-09-02 12:37:00,85.0,55.1,30.09,North,5,5.8,5.8,36,0.00,CLR,,0.00,780.0,WeatherDisplay:10.37,2013-09-02 10:37:00,
2013-09-02 12:38:00,84.9,55.7,30.09,North,9,6.9,6.9,37,0.00,CLR,,0.00,777.0,WeatherDisplay:10.37,2013-09-02 10:38:00,
2013-09-02 12:40:00,84.8,55.6,30.09,NE,51,6.0,6.0,37,0.00,CLR,,0.00,777.0,WeatherDisplay:10.37,2013-09-02 10:40:00,
2013-09-02 12:42:00,84.6,55.5,30.09,ENE,61,3.5,0.0,37,0.00,CLR,,0.00,777.0,WeatherDisplay:10.37,2013-09-02 10:42:00,
2013-09-02 12:44:00,84.7,55.5,30.09,ENE,61,0.0,0.0,37,0.00,CLR,,0.00,777.0,WeatherDisplay:10.37,2013-09-02 10:44:00,
2013-09-02 12:46:00,84.9,55.7,30.09,SE,124,5.8,5.8,37,0.00,CLR,,0.00,777.0,WeatherDisplay:10.37,2013-09-02 10:46:00,
2013-09-02 12:47:00,85.0,55.8,30.09,NNW,329,2.3,0.0,37,0.00,CLR,,0.00,779.0,WeatherDisplay:10.37,2013-09-02 10:47:00,
2013-09-02 12:49:00,85.1,55.9,30.09,North,355,6.0,6.0,37,0.00,CLR,,0.00,780.0,WeatherDisplay:10.37,2013-09-02 10:49:00,
2013-09-02 12:50:00,85.2,56.0,30.09,NNE,13,5.8,5.8,37,0.00,CLR,,0.00,782.0,WeatherDisplay:10.37,2013-09-02 10:50:00,
2013-09-02 12:51:00,85.1,55.1,30.09,ENE,62,5.8,0.0,36,0.00,CLR,,0.00,782.0,WeatherDisplay:10.37,2013-09-02 10:51:00,
2013-09-02 12:52:00,85.0,55.1,30.09,NE,42,1.2,1.2,36,0.00,CLR,,0.00,784.0,WeatherDisplay:10.37,2013-09-02 10:52:00,
2013-09-02 12:53:00,84.9,55.7,30.09,North,11,2.0,2.0,37,0.00,CLR,,0.00,784.0,WeatherDisplay:10.37,2013-09-02 10:53:00,
2013-09-02 12:54:00,84.9,55.7,30.09,NW,323,3.5,3.5,37,0.00,CLR,,0.00,784.0,WeatherDisplay:10.37,2013-09-02 10:54:00,
2013-09-02 12:55:00,84.8,55.6,30.09,NE,45,3.5,3.5,37,0.00,CLR,,0.00,784.0,WeatherDisplay:10.37,2013-09-02 10:55:00,
2013-09-02 12:56:00,84.7,55.5,30.09,NE,41,4.6,4.6,37,0.00,CLR,,0.00,780.0,WeatherDisplay:10.37,2013-09-02 10:56:00,
2013-09-02 12:58:00,84.6,55.5,30.09,North,5,2.3,2.3,37,0.00,CLR,,0.00,777.0,WeatherDisplay:10.37,2013-09-02 10:58:00,
2013-09-02 12:59:00,84.7,55.5,30.09,SSE,148,5.8,5.8,37,0.00,CLR,,0.00,777.0,WeatherDisplay:10.37,2013-09-02 10:59:00,
2013-09-02 13:01:00,85.1,55.9,30.09,South,171,3.5,3.5,37,0.00,CLR,,0.00,777.0,WeatherDisplay:10.37,2013-09-02 11:01:00,
2013-09-02 13:02:00,85.3,56.1,30.09,WNW,285,3.5,0.0,37,0.00,CLR,,0.00,777.0,WeatherDisplay:10.37,2013-09-02 11:02:00,
2013-09-02 13:03:00,85.4,56.2,30.09,West,281,0.0,0.1,37,0.00,CLR,,0.00,777.0,WeatherDisplay:10.37,2013-09-02 11:03:00,
2013-09-02 13:04:00,85.5,57.0,30.09,NW,317,4.0,4.0,38,0.00,CLR,,0.00,779.0,WeatherDisplay:10.37,2013-09-02 11:04:00,
2013-09-02 13:05:00,85.5,57.0,30.09,NNE,15,8.1,8.1,38,0.00,CLR,,0.00,780.0,WeatherDisplay:10.37,2013-09-02 11:05:00,
2013-09-02 13:06:00,85.3,56.1,30.08,NE,38,8.1,8.1,37,0.00,CLR,,0.00,780.0,WeatherDisplay:10.37,2013-09-02 11:06:00,
2013-09-02 13:08:00,85.2,56.0,30.09,NE,54,8.1,8.1,37,0.00,CLR,,0.00,780.0,WeatherDisplay:10.37,2013-09-02 11:08:00,
2013-09-02 13:09:00,85.1,55.9,30.09,North,355,9.2,9.2,37,0.00,CLR,,0.00,777.0,WeatherDisplay:10.37,2013-09-02 11:09:00,
2013-09-02 13:11:00,84.8,55.6,30.08,NNE,24,8.1,8.1,37,0.00,CLR,,0.00,773.0,WeatherDisplay:10.37,2013-09-02 11:11:00,
2013-09-02 13:12:00,84.8,55.6,30.08,NNE,32,8.1,8.1,37,0.00,CLR,,0.00,775.0,WeatherDisplay:10.37,2013-09-02 11:12:00,
2013-09-02 13:13:00,84.7,56.3,30.09,NE,40,8.1,8.1,38,0.00,CLR,,0.00,775.0,WeatherDisplay:10.37,2013-09-02 11:13:00,
2013-09-02 13:14:00,84.7,56.3,30.09,NE,40,3.5,3.5,38,0.00,CLR,,0.00,775.0,WeatherDisplay:10.37,2013-09-02 11:14:00,
2013-09-02 13:15:00,84.7,56.3,30.09,NE,34,6.9,6.9,38,0.00,CLR,,0.00,775.0,WeatherDisplay:10.37,2013-09-02 11:15:00,
2013-09-02 13:17:00,84.4,56.0,30.09,East,82,5.8,5.8,38,0.00,CLR,,0.00,775.0,WeatherDisplay:10.37,2013-09-02 11:17:00,
2013-09-02 13:18:00,84.7,56.3,30.09,SSE,151,2.3,2.3,38,0.00,CLR,,0.00,775.0,WeatherDisplay:10.37,2013-09-02 11:18:00,
2013-09-02 13:20:00,85.0,56.5,30.08,SSW,204,0.0,0.0,38,0.00,CLR,,0.00,775.0,WeatherDisplay:10.37,2013-09-02 11:20:00,
2013-09-02 13:22:00,85.7,57.2,30.08,NE,56,2.3,2.3,38,0.00,CLR,,0.00,773.0,WeatherDisplay:10.37,2013-09-02 11:22:00,
2013-09-02 13:24:00,86.1,56.8,30.08,NE,42,5.0,5.0,37,0.00,CLR,,0.00,773.0,WeatherDisplay:10.37,2013-09-02 11:24:00,
2013-09-02 13:25:00,86.1,56.8,30.09,NE,54,9.2,9.2,37,0.00,CLR,,0.00,772.0,WeatherDisplay:10.37,2013-09-02 11:25:00,
2013-09-02 13:27:00,85.9,56.6,30.08,ESE,104,2.3,2.3,37,0.00,CLR,,0.00,772.0,WeatherDisplay:10.37,2013-09-02 11:27:00,
2013-09-02 13:28:00,85.9,56.6,30.09,East,91,0.0,0.1,37,0.00,CLR,,0.00,772.0,WeatherDisplay:10.37,2013-09-02 11:28:00,
2013-09-02 13:29:00,85.9,56.6,30.09,ENE,64,1.2,1.2,37,0.00,CLR,,0.00,772.0,WeatherDisplay:10.37,2013-09-02 11:29:00,
2013-09-02 13:30:00,85.9,56.6,30.08,ENE,68,3.0,3.0,37,0.00,CLR,,0.00,777.0,WeatherDisplay:10.37,2013-09-02 11:30:00,
2013-09-02 13:32:00,85.8,56.5,30.08,NNE,19,9.2,9.2,37,0.00,CLR,,0.00,779.0,WeatherDisplay:10.37,2013-09-02 11:32:00,
2013-09-02 13:33:00,85.7,56.4,30.09,North,360,9.2,9.2,37,0.00,CLR,,0.00,779.0,WeatherDisplay:10.37,2013-09-02 11:33:00,
2013-09-02 13:34:00,85.6,56.3,30.09,ENE,62,9.0,9.0,37,0.00,CLR,,0.00,777.0,WeatherDisplay:10.37,2013-09-02 11:34:00,
2013-09-02 13:35:00,85.5,56.3,30.09,East,83,9.2,9.2,37,0.00,CLR,,0.00,775.0,WeatherDisplay:10.37,2013-09-02 11:35:00,
2013-09-02 13:36:00,85.4,56.2,30.09,East,84,6.9,6.9,37,0.00,CLR,,0.00,775.0,WeatherDisplay:10.37,2013-09-02 11:36:00,
2013-09-02 13:38:00,85.3,56.1,30.09,East,84,5.8,5.8,37,0.00,CLR,,0.00,775.0,WeatherDisplay:10.37,2013-09-02 11:38:00,
2013-09-02 13:39:00,85.4,56.2,30.09,SE,134,3.5,3.5,37,0.00,CLR,,0.00,775.0,WeatherDisplay:10.37,2013-09-02 11:39:00,
2013-09-02 13:40:00,85.5,56.3,30.09,NE,56,3.5,0.0,37,0.00,CLR,,0.00,770.0,WeatherDisplay:10.37,2013-09-02 11:40:00,
2013-09-02 13:41:00,85.6,56.3,30.09,North,355,3.5,3.5,37,0.00,CLR,,0.00,770.0,WeatherDisplay:10.37,2013-09-02 11:41:00,
2013-09-02 13:43:00,85.6,57.1,30.09,WNW,300,8.1,8.1,38,0.00,CLR,,0.00,770.0,WeatherDisplay:10.37,2013-09-02 11:43:00,
2013-09-02 13:44:00,85.6,57.1,30.09,NW,313,5.8,5.8,38,0.00,CLR,,0.00,770.0,WeatherDisplay:10.37,2013-09-02 11:44:00,
2013-09-02 13:45:00,85.5,57.0,30.09,North,5,5.8,5.8,38,0.00,CLR,,0.00,768.0,WeatherDisplay:10.37,2013-09-02 11:45:00,
2013-09-02 13:46:00,85.5,57.0,30.09,North,11,8.0,8.0,38,0.00,CLR,,0.00,768.0,WeatherDisplay:10.37,2013-09-02 11:46:00,
2013-09-02 13:47:00,85.4,56.9,30.09,NNE,17,9.2,9.2,38,0.00,CLR,,0.00,768.0,WeatherDisplay:10.37,2013-09-02 11:47:00,
2013-09-02 13:48:00,85.3,56.8,30.09,NNE,22,10.4,10.4,38,0.00,CLR,,0.00,761.0,WeatherDisplay:10.37,2013-09-02 11:48:00,
2013-09-02 13:50:00,85.1,56.6,30.09,North,360,5.8,5.8,38,0.00,CLR,,0.00,759.0,WeatherDisplay:10.37,2013-09-02 11:50:00,
2013-09-02 13:51:00,85.1,56.6,30.09,NNW,339,3.5,3.5,38,0.00,CLR,,0.00,759.0,WeatherDisplay:10.37,2013-09-02 11:51:00,
2013-09-02 13:53:00,84.9,56.5,30.09,North,355,0.0,0.0,38,0.00,CLR,,0.00,758.0,WeatherDisplay:10.37,2013-09-02 11:53:00,
2013-09-02 13:55:00,85.3,56.8,30.09,West,266,3.5,3.5,38,0.00,CLR,,0.00,756.0,WeatherDisplay:10.37,2013-09-02 11:55:00,
2013-09-02 13:56:00,85.3,56.1,30.09,West,267,3.5,3.5,37,0.00,CLR,,0.00,756.0,WeatherDisplay:10.37,2013-09-02 11:56:00,
2013-09-02 13:58:00,86.0,56.7,30.08,WSW,240,9.0,9.0,37,0.00,CLR,,0.00,758.0,WeatherDisplay:10.37,2013-09-02 11:58:00,
2013-09-02 13:59:00,86.0,56.7,30.09,WSW,240,10.0,10.0,37,0.00,CLR,,0.00,758.0,WeatherDisplay:10.37,2013-09-02 11:59:00,
2013-09-02 14:00:00,85.8,56.5,30.09,West,259,11.5,11.5,37,0.00,CLR,,0.00,758.0,WeatherDisplay:10.37,2013-09-02 12:00:00,
2013-09-02 14:01:00,85.6,56.3,30.09,WNW,286,11.5,11.5,37,0.00,CLR,,0.00,758.0,WeatherDisplay:10.37,2013-09-02 12:01:00,
2013-09-02 14:05:00,85.6,56.3,30.08,WSW,252,2.0,2.0,37,0.00,CLR,,0.00,754.0,WeatherDisplay:10.37,2013-09-02 12:05:00,
2013-09-02 14:06:00,85.6,56.3,30.08,West,262,5.8,5.8,37,0.00,CLR,,0.00,752.0,WeatherDisplay:10.37,2013-09-02 12:06:00,
2013-09-02 14:07:00,85.6,56.3,30.08,ENE,70,5.8,5.8,37,0.00,CLR,,0.00,752.0,WeatherDisplay:10.37,2013-09-02 12:07:00,
2013-09-02 14:11:00,86.1,56.8,30.08,ENE,65,3.5,3.5,37,0.00,CLR,,0.00,752.0,WeatherDisplay:10.37,2013-09-02 12:11:00,
2013-09-02 14:12:00,86.3,57.0,30.08,NE,47,2.3,2.3,37,0.00,CLR,,0.00,749.0,WeatherDisplay:10.37,2013-09-02 12:12:00,
2013-09-02 14:16:00,86.9,57.5,30.08,WSW,237,4.0,4.0,37,0.00,CLR,,0.00,740.0,WeatherDisplay:10.37,2013-09-02 12:16:00,
2013-09-02 14:17:00,87.0,57.6,30.08,West,269,5.8,5.8,37,0.00,CLR,,0.00,742.0,WeatherDisplay:10.37,2013-09-02 12:17:00,
2013-09-02 14:18:00,86.9,57.5,30.08,NNW,340,4.6,4.6,37,0.00,CLR,,0.00,742.0,WeatherDisplay:10.37,2013-09-02 12:18:00,
2013-09-02 14:21:00,86.7,56.6,30.08,North,360,8.1,8.1,36,0.00,CLR,,0.00,742.0,WeatherDisplay:10.37,2013-09-02 12:21:00,
2013-09-02 14:22:00,86.7,56.6,30.08,North,5,8.1,8.1,36,0.00,CLR,,0.00,740.0,WeatherDisplay:10.37,2013-09-02 12:22:00,
2013-09-02 14:23:00,86.4,56.3,30.07,North,360,5.8,5.8,36,0.00,CLR,,0.00,742.0,WeatherDisplay:10.37,2013-09-02 12:23:00,
2013-09-02 14:27:00,86.3,57.0,30.07,NW,324,4.6,4.6,37,0.00,CLR,,0.00,733.0,WeatherDisplay:10.37,2013-09-02 12:27:00,
2013-09-02 14:28:00,86.3,57.0,30.07,NNW,348,5.8,5.8,37,0.00,CLR,,0.00,728.0,WeatherDisplay:10.37,2013-09-02 12:28:00,
2013-09-02 14:29:00,86.2,56.9,30.08,NW,321,3.5,3.5,37,0.00,CLR,,0.00,726.0,WeatherDisplay:10.37,2013-09-02 12:29:00,
2013-09-02 14:32:00,86.1,56.8,30.07,NNE,33,6.0,6.0,37,0.00,CLR,,0.00,719.0,WeatherDisplay:10.37,2013-09-02 12:32:00,
2013-09-02 14:33:00,86.0,55.9,30.08,NNE,26,8.1,8.1,36,0.00,CLR,,0.00,719.0,WeatherDisplay:10.37,2013-09-02 12:33:00,
2013-09-02 14:34:00,86.0,55.9,30.08,NNE,18,8.1,8.1,36,0.00,CLR,,0.00,719.0,WeatherDisplay:10.37,2013-09-02 12:34:00,
2013-09-02 14:35:00,86.0,55.9,30.07,NW,316,2.3,2.3,36,0.00,CLR,,0.00,707.0,WeatherDisplay:10.37,2013-09-02 12:35:00,
2013-09-02 14:37:00,86.0,55.9,30.07,WSW,250,2.3,2.3,36,0.00,CLR,,0.00,705.0,WeatherDisplay:10.37,2013-09-02 12:37:00,
2013-09-02 14:38:00,86.1,56.0,30.07,NNW,341,3.5,3.5,36,0.00,CLR,,0.00,703.0,WeatherDisplay:10.37,2013-09-02 12:38:00,
2013-09-02 14:39:00,86.2,56.1,30.07,NNE,17,1.2,1.2,36,0.00,CLR,,0.00,701.0,WeatherDisplay:10.37,2013-09-02 12:39:00,
2013-09-02 14:40:00,86.2,56.1,30.07,NW,315,3.0,3.0,36,0.00,CLR,,0.00,701.0,WeatherDisplay:10.37,2013-09-02 12:40:00,
2013-09-02 14:41:00,86.3,56.2,30.07,NNW,348,5.8,5.8,36,0.00,CLR,,0.00,689.0,WeatherDisplay:10.37,2013-09-02 12:41:00,
2013-09-02 14:42:00,86.4,56.3,30.07,NNW,344,4.6,4.6,36,0.00,CLR,,0.00,689.0,WeatherDisplay:10.37,2013-09-02 12:42:00,
2013-09-02 14:43:00,86.4,56.3,30.07,West,260,4.6,4.6,36,0.00,CLR,,0.00,689.0,WeatherDisplay:10.37,2013-09-02 12:43:00,
2013-09-02 14:44:00,86.4,56.3,30.08,WSW,252,3.0,3.0,36,0.00,CLR,,0.00,693.0,WeatherDisplay:10.37,2013-09-02 12:44:00,
2013-09-02 14:45:00,86.5,56.4,30.08,WNW,287,4.0,4.0,36,0.00,CLR,,0.00,696.0,WeatherDisplay:10.37,2013-09-02 12:45:00,
2013-09-02 14:46:00,86.6,56.5,30.08,SSW,213,4.6,4.6,36,0.00,CLR,,0.00,696.0,WeatherDisplay:10.37,2013-09-02 12:46:00,
2013-09-02 14:47:00,86.6,56.5,30.07,SSW,211,4.6,4.6,36,0.00,CLR,,0.00,696.0,WeatherDisplay:10.37,2013-09-02 12:47:00,
2013-09-02 14:49:00,86.6,56.5,30.07,SSW,213,3.5,3.5,36,0.00,CLR,,0.00,698.0,WeatherDisplay:10.37,2013-09-02 12:49:00,
2013-09-02 14:51:00,86.8,56.6,30.07,NNW,333,5.0,5.0,36,0.00,CLR,,0.00,689.0,WeatherDisplay:10.37,2013-09-02 12:51:00,
2013-09-02 14:52:00,86.9,56.7,30.07,WNW,298,4.6,4.6,36,0.00,CLR,,0.00,689.0,WeatherDisplay:10.37,2013-09-02 12:52:00,
2013-09-02 14:54:00,86.8,55.9,30.07,North,355,3.5,3.5,35,0.00,CLR,,0.00,689.0,WeatherDisplay:10.37,2013-09-02 12:54:00,
2013-09-02 14:57:00,86.4,56.3,30.07,NW,304,4.0,4.0,36,0.00,CLR,,0.00,682.0,WeatherDisplay:10.37,2013-09-02 12:57:00,
2013-09-02 14:58:00,86.4,56.3,30.07,WNW,292,3.5,3.5,36,0.00,CLR,,0.00,679.0,WeatherDisplay:10.37,2013-09-02 12:58:00,
2013-09-02 14:59:00,86.4,56.3,30.07,NW,319,3.5,3.5,36,0.00,CLR,,0.00,680.0,WeatherDisplay:10.37,2013-09-02 12:59:00,
2013-09-02 15:00:00,86.4,56.3,30.07,WSW,240,1.2,1.2,36,0.00,CLR,,0.00,677.0,WeatherDisplay:10.37,2013-09-02 13:00:00,
2013-09-02 15:03:00,86.9,56.7,30.07,NNE,18,6.0,6.0,36,0.00,CLR,,0.00,670.0,WeatherDisplay:10.37,2013-09-02 13:03:00,
2013-09-02 15:04:00,87.0,55.2,30.07,ENE,57,5.8,5.8,34,0.00,CLR,,0.00,670.0,WeatherDisplay:10.37,2013-09-02 13:04:00,
2013-09-02 15:05:00,87.0,55.2,30.07,East,97,6.9,6.9,34,0.00,CLR,,0.00,670.0,WeatherDisplay:10.37,2013-09-02 13:05:00,
2013-09-02 15:08:00,87.3,56.3,30.07,NNW,348,8.1,8.1,35,0.00,CLR,,0.00,656.0,WeatherDisplay:10.37,2013-09-02 13:08:00,
2013-09-02 15:09:00,87.4,56.4,30.07,NNE,19,7.0,7.0,35,0.00,CLR,,0.00,645.0,WeatherDisplay:10.37,2013-09-02 13:09:00,
2013-09-02 15:10:00,87.4,53.9,30.07,North,360,8.1,8.1,32,0.00,CLR,,0.00,629.0,WeatherDisplay:10.37,2013-09-02 13:10:00,
2013-09-02 15:12:00,87.2,54.6,30.07,North,9,11.5,11.5,33,0.00,CLR,,0.00,629.0,WeatherDisplay:10.37,2013-09-02 13:12:00,
2013-09-02 15:13:00,87.1,54.5,30.07,NNE,16,6.9,6.9,33,0.00,CLR,,0.00,629.0,WeatherDisplay:10.37,2013-09-02 13:13:00,
2013-09-02 15:14:00,87.0,54.4,30.07,NNE,20,6.9,6.9,33,0.00,CLR,,0.00,629.0,WeatherDisplay:10.37,2013-09-02 13:14:00,
2013-09-02 15:15:00,87.0,54.4,30.07,North,360,10.0,10.0,33,0.00,CLR,,0.00,629.0,WeatherDisplay:10.37,2013-09-02 13:15:00,
2013-09-02 15:17:00,87.0,55.2,30.07,NW,313,5.8,5.8,34,0.00,CLR,,0.00,629.0,WeatherDisplay:10.37,2013-09-02 13:17:00,
2013-09-02 15:19:00,87.0,55.2,30.07,NNW,335,4.6,4.6,34,0.00,CLR,,0.00,629.0,WeatherDisplay:10.37,2013-09-02 13:19:00,
2013-09-02 15:20:00,86.8,55.1,30.07,ENE,61,4.6,4.6,34,0.00,CLR,,0.00,629.0,WeatherDisplay:10.37,2013-09-02 13:20:00,
2013-09-02 15:21:00,86.7,55.0,30.07,ENE,58,5.0,5.0,34,0.00,CLR,,0.00,610.0,WeatherDisplay:10.37,2013-09-02 13:21:00,
2013-09-02 15:22:00,86.6,54.9,30.07,SE,140,1.2,1.2,34,0.00,CLR,,0.00,594.0,WeatherDisplay:10.37,2013-09-02 13:22:00,
2013-09-02 15:24:00,86.8,55.1,30.07,North,351,6.0,6.0,34,0.00,CLR,,0.00,594.0,WeatherDisplay:10.37,2013-09-02 13:24:00,
2013-09-02 15:25:00,86.9,55.2,30.07,NW,313,5.8,5.8,34,0.00,CLR,,0.00,594.0,WeatherDisplay:10.37,2013-09-02 13:25:00,
2013-09-02 15:26:00,86.9,55.2,30.07,NW,313,5.8,5.8,34,0.00,CLR,,0.00,594.0,WeatherDisplay:10.37,2013-09-02 13:26:00,
2013-09-02 15:28:00,86.8,55.1,30.07,NW,323,15.0,15.0,34,0.00,FEW,,0.00,120.0,WeatherDisplay:10.37,2013-09-02 13:28:00,
2013-09-02 15:29:00,86.7,54.2,30.07,NW,309,15.0,15.0,33,0.00,FEW,,0.00,120.0,WeatherDisplay:10.37,2013-09-02 13:29:00,
2013-09-02 15:30:00,86.5,54.0,30.07,WNW,301,6.9,6.9,33,0.00,FEW,,0.00,120.0,WeatherDisplay:10.37,2013-09-02 13:30:00,
2013-09-02 15:31:00,86.4,53.9,30.07,NW,308,8.1,8.1,33,0.00,FEW,,0.00,617.0,WeatherDisplay:10.37,2013-09-02 13:31:00,
2013-09-02 15:32:00,86.4,54.7,30.07,WNW,284,6.9,6.9,34,0.00,FEW,,0.00,617.0,WeatherDisplay:10.37,2013-09-02 13:32:00,
2013-09-02 15:34:00,86.4,54.7,30.07,WSW,255,5.8,5.8,34,0.00,FEW,,0.00,610.0,WeatherDisplay:10.37,2013-09-02 13:34:00,
2013-09-02 15:36:00,86.3,54.6,30.07,SE,132,1.2,1.2,34,0.00,FEW,,0.00,603.0,WeatherDisplay:10.37,2013-09-02 13:36:00,
2013-09-02 15:37:00,86.5,54.8,30.07,ENE,69,5.0,5.0,34,0.00,FEW,,0.00,603.0,WeatherDisplay:10.37,2013-09-02 13:37:00,
2013-09-02 15:38:00,86.5,54.8,30.07,ENE,69,6.9,6.9,34,0.00,FEW,,0.00,603.0,WeatherDisplay:10.37,2013-09-02 13:38:00,
2013-09-02 15:39:00,86.8,55.1,30.07,ENE,78,7.0,7.0,34,0.00,FEW,,0.00,603.0,WeatherDisplay:10.37,2013-09-02 13:39:00,
2013-09-02 15:40:00,86.8,55.1,30.07,ENE,64,9.0,9.0,34,0.00,FEW,,0.00,603.0,WeatherDisplay:10.37,2013-09-02 13:40:00,
2013-09-02 15:42:00,86.8,55.1,30.07,East,80,3.5,3.5,34,0.00,CLR,,0.00,587.0,WeatherDisplay:10.37,2013-09-02 13:42:00,
2013-09-02 15:43:00,87.0,55.2,30.07,ENE,61,6.9,6.9,34,0.00,CLR,,0.00,578.0,WeatherDisplay:10.37,2013-09-02 13:43:00,
2013-09-02 15:44:00,87.0,55.2,30.07,NE,51,6.9,6.9,34,0.00,CLR,,0.00,575.0,WeatherDisplay:10.37,2013-09-02 13:44:00,
2013-09-02 15:45:00,87.0,55.2,30.06,NE,45,9.0,9.0,34,0.00,CLR,,0.00,570.0,WeatherDisplay:10.37,2013-09-02 13:45:00,
2013-09-02 15:46:00,87.0,55.2,30.06,NNE,31,9.2,9.2,34,0.00,CLR,,0.00,570.0,WeatherDisplay:10.37,2013-09-02 13:46:00,
2013-09-02 15:47:00,87.0,55.2,30.06,ENE,65,6.9,6.9,34,0.00,CLR,,0.00,568.0,WeatherDisplay:10.37,2013-09-02 13:47:00,
2013-09-02 15:48:00,87.1,55.3,30.06,ENE,63,4.6,4.6,34,0.00,CLR,,0.00,568.0,WeatherDisplay:10.37,2013-09-02 13:48:00,
2013-09-02 15:50:00,87.1,55.3,30.06,ENE,65,3.5,3.5,34,0.00,CLR,,0.00,557.0,WeatherDisplay:10.37,2013-09-02 13:50:00,
2013-09-02 15:52:00,87.2,55.4,30.06,ENE,58,5.8,5.8,34,0.00,CLR,,0.00,548.0,WeatherDisplay:10.37,2013-09-02 13:52:00,
2013-09-02 15:53:00,87.1,55.3,30.06,NNE,32,10.4,10.4,34,0.00,CLR,,0.00,547.0,WeatherDisplay:10.37,2013-09-02 13:53:00,
2013-09-02 15:55:00,87.0,54.4,30.06,NE,49,8.1,8.1,33,0.00,CLR,,0.00,547.0,WeatherDisplay:10.37,2013-09-02 13:55:00,
2013-09-02 15:57:00,86.9,54.3,30.06,ENE,57,4.6,4.6,33,0.00,CLR,,0.00,527.0,WeatherDisplay:10.37,2013-09-02 13:57:00,
2013-09-02 15:59:00,86.9,54.3,30.06,SE,129,2.3,2.3,33,0.00,CLR,,0.00,527.0,WeatherDisplay:10.37,2013-09-02 13:59:00,
2013-09-02 16:00:00,87.0,54.4,30.06,SSW,210,2.3,2.3,33,0.00,CLR,,0.00,538.0,WeatherDisplay:10.37,2013-09-02 14:00:00,
2013-09-02 16:02:00,87.5,54.9,30.06,SW,223,3.5,3.5,33,0.00,CLR,,0.00,538.0,WeatherDisplay:10.37,2013-09-02 14:02:00,
2013-09-02 16:04:00,87.9,55.2,30.06,SSE,156,0.0,0.0,33,0.00,CLR,,0.00,533.0,WeatherDisplay:10.37,2013-09-02 14:04:00,
2013-09-02 16:05:00,88.1,54.5,30.06,SSE,150,0.0,0.1,32,0.00,CLR,,0.00,534.0,WeatherDisplay:10.37,2013-09-02 14:05:00,
2013-09-02 16:07:00,88.3,54.7,30.06,NE,36,5.8,5.8,32,0.00,CLR,,0.00,533.0,WeatherDisplay:10.37,2013-09-02 14:07:00,
2013-09-02 16:08:00,88.3,54.7,30.06,NNE,27,5.0,5.0,32,0.00,CLR,,0.00,536.0,WeatherDisplay:10.37,2013-09-02 14:08:00,
2013-09-02 16:09:00,88.4,54.8,30.06,NE,40,6.0,6.0,32,0.00,CLR,,0.00,536.0,WeatherDisplay:10.37,2013-09-02 14:09:00,
2013-09-02 16:10:00,88.5,54.9,30.06,NE,45,6.0,6.0,32,0.00,CLR,,0.00,536.0,WeatherDisplay:10.37,2013-09-02 14:10:00,
2013-09-02 16:12:00,88.4,54.8,30.06,NE,44,4.6,4.6,32,0.00,CLR,,0.00,529.0,WeatherDisplay:10.37,2013-09-02 14:12:00,
2013-09-02 16:13:00,88.4,54.8,30.06,NE,48,4.6,4.6,32,0.00,CLR,,0.00,529.0,WeatherDisplay:10.37,2013-09-02 14:13:00,
2013-09-02 16:15:00,88.3,54.7,30.06,ENE,76,4.6,4.6,32,0.00,CLR,,0.00,526.0,WeatherDisplay:10.37,2013-09-02 14:15:00,
2013-09-02 16:16:00,88.2,54.6,30.06,NNE,13,5.0,5.0,32,0.00,CLR,,0.00,526.0,WeatherDisplay:10.37,2013-09-02 14:16:00,
2013-09-02 16:18:00,88.1,54.5,30.06,North,355,5.8,5.8,32,0.00,CLR,,0.00,510.0,WeatherDisplay:10.37,2013-09-02 14:18:00,
2013-09-02 16:21:00,88.0,54.4,30.06,West,261,3.5,3.5,32,0.00,CLR,,0.00,510.0,WeatherDisplay:10.37,2013-09-02 14:21:00,
2013-09-02 16:22:00,87.9,55.2,30.06,West,259,2.3,0.0,33,0.00,CLR,,0.00,510.0,WeatherDisplay:10.37,2013-09-02 14:22:00,
2013-09-02 16:23:00,87.9,55.2,30.06,West,273,3.0,3.0,33,0.00,CLR,,0.00,510.0,WeatherDisplay:10.37,2013-09-02 14:23:00,
2013-09-02 16:24:00,87.9,55.2,30.06,West,273,6.0,6.0,33,0.00,CLR,,0.00,510.0,WeatherDisplay:10.37,2013-09-02 14:24:00,
2013-09-02 16:26:00,87.7,58.2,30.07,West,273,10.4,10.4,37,0.00,CLR,,0.00,466.0,WeatherDisplay:10.37,2013-09-02 14:26:00,
2013-09-02 16:27:00,87.5,58.8,30.06,WNW,296,13.0,13.0,38,0.00,CLR,,0.00,466.0,WeatherDisplay:10.37,2013-09-02 14:27:00,
2013-09-02 16:28:00,87.4,58.7,30.06,WSW,250,13.0,13.0,38,0.00,CLR,,0.00,466.0,WeatherDisplay:10.37,2013-09-02 14:28:00,
2013-09-02 16:29:00,87.2,59.9,30.06,WNW,288,14.0,14.0,40,0.00,CLR,,0.00,464.0,WeatherDisplay:10.37,2013-09-02 14:29:00,
2013-09-02 16:31:00,86.4,59.2,30.06,West,259,11.5,11.5,40,0.00,CLR,,0.00,441.0,WeatherDisplay:10.37,2013-09-02 14:31:00,
2013-09-02 16:33:00,85.9,58.8,30.06,WSW,249,9.2,9.2,40,0.00,CLR,,0.00,448.0,WeatherDisplay:10.37,2013-09-02 14:33:00,
2013-09-02 16:35:00,85.7,59.3,30.06,NW,323,17.3,17.3,41,0.00,CLR,,0.00,452.0,WeatherDisplay:10.37,2013-09-02 14:35:00,
2013-09-02 16:36:00,85.6,59.2,30.06,West,279,12.0,12.2,41,0.00,FEW,,0.00,452.0,WeatherDisplay:10.37,2013-09-02 14:36:00,
2013-09-02 16:38:00,85.3,59.6,30.06,WSW,252,18.4,18.4,42,0.00,CLR,,0.00,459.0,WeatherDisplay:10.37,2013-09-02 14:38:00,
2013-09-02 16:41:00,85.0,59.3,30.06,West,265,22.0,22.0,42,0.00,CLR,,0.00,459.0,WeatherDisplay:10.37,2013-09-02 14:41:00,
2013-09-02 16:42:00,84.9,59.2,30.06,West,267,21.9,21.9,42,0.00,CLR,,0.00,459.0,WeatherDisplay:10.37,2013-09-02 14:42:00,
2013-09-02 16:43:00,84.7,59.7,30.06,West,265,21.9,21.9,43,0.00,CLR,,0.00,443.0,WeatherDisplay:10.37,2013-09-02 14:43:00,
2013-09-02 16:46:00,84.5,59.5,30.06,WSW,250,18.4,18.4,43,0.00,CLR,,0.00,432.0,WeatherDisplay:10.37,2013-09-02 14:46:00,
2013-09-02 16:47:00,84.5,60.2,30.06,WSW,256,18.4,18.4,44,0.00,CLR,,0.00,422.0,WeatherDisplay:10.37,2013-09-02 14:47:00,
2013-09-02 16:48:00,84.2,59.9,30.06,West,263,20.7,20.7,44,0.00,CLR,,0.00,424.0,WeatherDisplay:10.37,2013-09-02 14:48:00,
2013-09-02 16:49:00,84.2,59.9,30.06,West,260,19.6,19.6,44,0.00,CLR,,0.00,424.0,WeatherDisplay:10.37,2013-09-02 14:49:00,
2013-09-02 16:51:00,84.0,59.7,30.06,West,267,18.4,18.4,44,0.00,CLR,,0.00,403.0,WeatherDisplay:10.37,2013-09-02 14:51:00,
2013-09-02 16:52:00,84.0,59.7,30.06,West,277,18.4,18.4,44,0.00,CLR,,0.00,403.0,WeatherDisplay:10.37,2013-09-02 14:52:00,
2013-09-02 16:54:00,83.9,60.3,30.06,WSW,254,19.6,19.6,45,0.00,CLR,,0.00,396.0,WeatherDisplay:10.37,2013-09-02 14:54:00,
2013-09-02 16:56:00,83.8,60.2,30.06,WSW,249,18.4,18.4,45,0.00,CLR,,0.00,388.0,WeatherDisplay:10.37,2013-09-02 14:56:00,
2013-09-02 16:57:00,83.9,60.3,30.06,West,261,20.7,20.7,45,0.00,CLR,,0.00,388.0,WeatherDisplay:10.37,2013-09-02 14:57:00,
2013-09-02 16:58:00,83.9,60.3,30.06,WSW,257,16.1,16.1,45,0.00,CLR,,0.00,388.0,WeatherDisplay:10.37,2013-09-02 14:58:00,
2013-09-02 16:59:00,83.9,60.3,30.06,WNW,288,16.1,16.1,45,0.00,CLR,,0.00,376.0,WeatherDisplay:10.37,2013-09-02 14:59:00,
2013-09-02 17:01:00,83.8,60.2,30.07,West,274,16.1,16.1,45,0.00,FEW,,0.00,373.0,WeatherDisplay:10.37,2013-09-02 15:01:00,
2013-09-02 17:02:00,83.7,60.1,30.07,WSW,244,12.7,12.7,45,0.00,FEW,,0.00,360.0,WeatherDisplay:10.37,2013-09-02 15:02:00,
2013-09-02 17:03:00,83.7,60.7,30.07,West,259,12.7,12.7,46,0.00,FEW,,0.00,360.0,WeatherDisplay:10.37,2013-09-02 15:03:00,
2013-09-02 17:04:00,83.7,60.7,30.07,West,281,17.3,17.3,46,0.00,FEW,,0.00,360.0,WeatherDisplay:10.37,2013-09-02 15:04:00,
2013-09-02 17:07:00,83.7,60.1,30.07,West,261,19.6,19.6,45,0.00,FEW,,0.00,360.0,WeatherDisplay:10.37,2013-09-02 15:07:00,
2013-09-02 17:08:00,83.7,60.1,30.07,SSW,194,19.6,19.6,45,0.00,FEW,,0.00,348.0,WeatherDisplay:10.37,2013-09-02 15:08:00,
2013-09-02 17:09:00,83.6,60.0,30.07,SW,236,15.0,15.0,45,0.00,FEW,,0.00,343.0,WeatherDisplay:10.37,2013-09-02 15:09:00,
2013-09-02 17:10:00,83.6,60.0,30.07,SW,232,15.0,15.0,45,0.00,FEW,,0.00,338.0,WeatherDisplay:10.37,2013-09-02 15:10:00,
2013-09-02 17:13:00,83.8,60.8,30.07,WSW,251,17.3,17.3,46,0.00,FEW,,0.00,325.0,WeatherDisplay:10.37,2013-09-02 15:13:00,
2013-09-02 17:14:00,83.8,60.2,30.07,WSW,255,17.3,17.3,45,0.00,FEW,,0.00,320.0,WeatherDisplay:10.37,2013-09-02 15:14:00,
2013-09-02 17:15:00,83.7,60.1,30.07,West,275,17.3,17.3,45,0.00,FEW,,0.00,320.0,WeatherDisplay:10.37,2013-09-02 15:15:00,
2013-09-02 17:19:00,83.5,59.9,30.07,West,275,13.0,13.0,45,0.00,FEW,,0.00,302.0,WeatherDisplay:10.37,2013-09-02 15:19:00,
2013-09-02 17:20:00,83.4,59.8,30.08,WNW,296,12.7,12.7,45,0.00,FEW,,0.00,302.0,WeatherDisplay:10.37,2013-09-02 15:20:00,
2013-09-02 17:22:00,83.3,60.4,30.08,WSW,244,16.1,16.1,46,0.00,FEW,,0.00,297.0,WeatherDisplay:10.37,2013-09-02 15:22:00,
2013-09-02 17:24:00,83.2,60.3,30.08,WSW,238,12.0,12.0,46,0.00,FEW,,0.00,294.0,WeatherDisplay:10.37,2013-09-02 15:24:00,
2013-09-02 17:25:00,83.2,60.3,30.08,WSW,242,17.3,17.3,46,0.00,FEW,,0.00,294.0,WeatherDisplay:10.37,2013-09-02 15:25:00,
2013-09-02 17:26:00,83.1,60.2,30.07,WSW,237,16.1,16.1,46,0.00,FEW,,0.00,287.0,WeatherDisplay:10.37,2013-09-02 15:26:00,
2013-09-02 17:27:00,82.9,60.0,30.08,WSW,246,15.0,15.0,46,0.00,FEW,,0.00,283.0,WeatherDisplay:10.37,2013-09-02 15:27:00,
2013-09-02 17:29:00,82.8,59.9,30.08,WSW,240,14.0,14.0,46,0.00,FEW,,0.00,281.0,WeatherDisplay:10.37,2013-09-02 15:29:00,
2013-09-02 17:30:00,82.8,59.9,30.08,WSW,244,13.8,13.8,46,0.00,FEW,,0.00,278.0,WeatherDisplay:10.37,2013-09-02 15:30:00,
2013-09-02 17:31:00,82.8,59.9,30.07,West,274,15.0,15.0,46,0.00,FEW,,0.00,278.0,WeatherDisplay:10.37,2013-09-02 15:31:00,
2013-09-02 17:34:00,82.8,59.9,30.08,West,266,15.0,15.0,46,0.00,FEW,,0.00,269.0,WeatherDisplay:10.37,2013-09-02 15:34:00,
2013-09-02 17:35:00,82.8,59.9,30.08,WSW,251,15.0,15.0,46,0.00,FEW,,0.00,262.0,WeatherDisplay:10.37,2013-09-02 15:35:00,
2013-09-02 17:36:00,82.8,59.9,30.08,WSW,257,11.5,11.5,46,0.00,FEW,,0.00,262.0,WeatherDisplay:10.37,2013-09-02 15:36:00,
2013-09-02 17:39:00,82.8,59.9,30.07,West,261,11.5,11.5,46,0.00,FEW,,0.00,250.0,WeatherDisplay:10.37,2013-09-02 15:39:00,
2013-09-02 17:40:00,82.9,60.6,30.08,West,263,12.0,12.0,47,0.00,FEW,,0.00,246.0,WeatherDisplay:10.37,2013-09-02 15:40:00,
2013-09-02 17:42:00,82.8,60.5,30.08,West,262,14.0,14.0,47,0.00,FEW,,0.00,246.0,WeatherDisplay:10.37,2013-09-02 15:42:00,
2013-09-02 17:44:00,82.6,60.9,30.08,SW,232,12.7,12.7,48,0.00,FEW,,0.00,230.0,WeatherDisplay:10.37,2013-09-02 15:44:00,
2013-09-02 17:45:00,82.6,60.9,30.08,West,275,11.5,11.5,48,0.00,FEW,,0.00,227.0,WeatherDisplay:10.37,2013-09-02 15:45:00,
2013-09-02 17:46:00,82.5,60.8,30.08,WSW,251,13.8,13.8,48,0.00,FEW,,0.00,227.0,WeatherDisplay:10.37,2013-09-02 15:46:00,
2013-09-02 17:47:00,82.5,61.4,30.08,West,266,13.8,13.8,49,0.00,FEW,,0.00,227.0,WeatherDisplay:10.37,2013-09-02 15:47:00,
2013-09-02 17:49:00,82.5,61.4,30.07,West,269,12.7,12.7,49,0.00,FEW,,0.00,227.0,WeatherDisplay:10.37,2013-09-02 15:49:00,
2013-09-02 17:50:00,82.5,61.4,30.07,WNW,294,12.7,12.7,49,0.00,FEW,,0.00,227.0,WeatherDisplay:10.37,2013-09-02 15:50:00,
2013-09-02 17:51:00,82.4,61.3,30.08,SW,233,12.7,12.7,49,0.00,FEW,,0.00,211.0,WeatherDisplay:10.37,2013-09-02 15:51:00,
2013-09-02 17:52:00,82.4,61.3,30.08,WSW,257,16.1,16.1,49,0.00,FEW,,0.00,211.0,WeatherDisplay:10.37,2013-09-02 15:52:00,
2013-09-02 17:54:00,82.4,61.3,30.08,WSW,257,12.7,12.7,49,0.00,FEW,,0.00,206.0,WeatherDisplay:10.37,2013-09-02 15:54:00,
2013-09-02 17:55:00,82.3,61.2,30.08,WSW,246,15.0,15.0,49,0.00,FEW,,0.00,200.0,WeatherDisplay:10.37,2013-09-02 15:55:00,
2013-09-02 17:57:00,82.2,61.1,30.08,WSW,242,15.0,15.0,49,0.00,FEW,,0.00,195.0,WeatherDisplay:10.37,2013-09-02 15:57:00,
2013-09-02 17:58:00,82.1,61.0,30.08,SW,229,15.0,15.0,49,0.00,FEW,,0.00,195.0,WeatherDisplay:10.37,2013-09-02 15:58:00,
2013-09-02 17:59:00,82.0,61.0,30.08,SW,233,12.7,12.7,49,0.00,FEW,,0.00,190.0,WeatherDisplay:10.37,2013-09-02 15:59:00,
2013-09-02 18:01:00,82.0,61.5,30.08,WSW,241,11.0,11.0,50,0.00,FEW,,0.00,183.0,WeatherDisplay:10.37,2013-09-02 16:01:00,
2013-09-02 18:03:00,81.9,61.4,30.08,WSW,241,12.7,12.7,50,0.00,FEW,,0.00,176.0,WeatherDisplay:10.37,2013-09-02 16:03:00,
2013-09-02 18:04:00,81.8,61.3,30.08,SW,223,11.5,11.5,50,0.00,FEW,,0.00,172.0,WeatherDisplay:10.37,2013-09-02 16:04:00,
2013-09-02 18:06:00,81.8,61.3,30.08,West,270,11.5,11.5,50,0.00,FEW,,0.00,167.0,WeatherDisplay:10.37,2013-09-02 16:06:00,
2013-09-02 18:09:00,81.8,61.3,30.08,WNW,293,8.1,8.1,50,0.00,FEW,,0.00,163.0,WeatherDisplay:10.37,2013-09-02 16:09:00,
2013-09-02 18:11:00,81.8,61.3,30.08,WSW,255,12.0,12.0,50,0.00,FEW,,0.00,148.0,WeatherDisplay:10.37,2013-09-02 16:11:00,
2013-09-02 18:14:00,81.7,61.8,30.08,West,264,11.5,11.5,51,0.00,FEW,,0.00,139.0,WeatherDisplay:10.37,2013-09-02 16:14:00,
2013-09-02 18:15:00,81.5,61.6,30.08,West,260,8.1,8.1,51,0.00,FEW,,0.00,134.0,WeatherDisplay:10.37,2013-09-02 16:15:00,
2013-09-02 18:16:00,81.5,61.6,30.08,SW,227,9.2,9.2,51,0.00,FEW,,0.00,134.0,WeatherDisplay:10.37,2013-09-02 16:16:00,
2013-09-02 18:18:00,81.5,62.2,30.08,WSW,250,12.7,12.7,52,0.00,FEW,,0.00,134.0,WeatherDisplay:10.37,2013-09-02 16:18:00,
2013-09-02 18:19:00,81.4,62.1,30.08,West,269,11.5,11.5,52,0.00,FEW,,0.00,121.0,WeatherDisplay:10.37,2013-09-02 16:19:00,
2013-09-02 18:20:00,81.3,62.0,30.08,West,268,12.7,12.7,52,0.00,FEW,,0.00,121.0,WeatherDisplay:10.37,2013-09-02 16:20:00,
2013-09-02 18:21:00,81.3,62.0,30.08,WSW,246,10.4,10.4,52,0.00,FEW,,0.00,121.0,WeatherDisplay:10.37,2013-09-02 16:21:00,
2013-09-02 18:23:00,81.3,62.5,30.08,WSW,258,8.0,8.0,53,0.00,FEW,,0.00,109.0,WeatherDisplay:10.37,2013-09-02 16:23:00,
2013-09-02 18:25:00,81.3,62.5,30.08,West,276,11.5,11.5,53,0.00,FEW,,0.00,109.0,WeatherDisplay:10.37,2013-09-02 16:25:00,
2013-09-02 18:26:00,81.2,62.4,30.08,WSW,255,11.5,11.5,53,0.00,FEW,,0.00,100.0,WeatherDisplay:10.37,2013-09-02 16:26:00,
2013-09-02 18:30:00,80.9,62.2,30.08,WSW,251,13.0,13.0,53,0.00,FEW,,0.00,88.0,WeatherDisplay:10.37,2013-09-02 16:30:00,
2013-09-02 18:31:00,80.9,62.2,30.08,WSW,244,13.8,13.8,53,0.00,FEW,,0.00,88.0,WeatherDisplay:10.37,2013-09-02 16:31:00,
2013-09-02 18:32:00,80.8,62.1,30.08,WSW,246,12.7,12.7,53,0.00,FEW,,0.00,88.0,WeatherDisplay:10.37,2013-09-02 16:32:00,
2013-09-02 18:35:00,80.5,61.8,30.08,WSW,258,11.5,11.5,53,0.00,FEW,,0.00,72.0,WeatherDisplay:10.37,2013-09-02 16:35:00,
2013-09-02 18:36:00,80.5,62.3,30.08,West,278,10.4,10.4,54,0.00,FEW,,0.00,70.0,WeatherDisplay:10.37,2013-09-02 16:36:00,
2013-09-02 18:37:00,80.5,62.3,30.08,West,265,10.4,10.4,54,0.00,FEW,,0.00,69.0,WeatherDisplay:10.37,2013-09-02 16:37:00,
2013-09-02 18:40:00,80.4,61.7,30.08,WNW,290,11.5,11.5,53,0.00,FEW,,0.00,62.0,WeatherDisplay:10.37,2013-09-02 16:40:00,
2013-09-02 18:41:00,80.3,61.6,30.08,West,270,11.5,11.5,53,0.00,FEW,,0.00,58.0,WeatherDisplay:10.37,2013-09-02 16:41:00,
2013-09-02 18:42:00,80.3,61.6,30.08,WNW,284,11.5,11.5,53,0.00,FEW,,0.00,58.0,WeatherDisplay:10.37,2013-09-02 16:42:00,
2013-09-02 18:43:00,80.2,61.5,30.08,WNW,288,8.1,8.1,53,0.00,FEW,,0.00,58.0,WeatherDisplay:10.37,2013-09-02 16:43:00,
2013-09-02 18:45:00,80.1,61.4,30.08,WSW,251,12.7,12.7,53,0.00,FEW,,0.00,49.0,WeatherDisplay:10.37,2013-09-02 16:45:00,
2013-09-02 18:47:00,80.1,62.0,30.08,WSW,254,11.5,11.5,54,0.00,FEW,,0.00,46.0,WeatherDisplay:10.37,2013-09-02 16:47:00,
2013-09-02 18:48:00,80.0,61.9,30.08,WNW,283,10.0,10.0,54,0.00,FEW,,0.00,46.0,WeatherDisplay:10.37,2013-09-02 16:48:00,
2013-09-02 18:49:00,80.0,61.9,30.08,West,263,10.4,10.4,54,0.00,FEW,,0.00,46.0,WeatherDisplay:10.37,2013-09-02 16:49:00,
2013-09-02 18:50:00,79.9,61.8,30.08,WSW,256,9.2,9.2,54,0.00,FEW,,0.00,42.0,WeatherDisplay:10.37,2013-09-02 16:50:00,
2013-09-02 18:52:00,79.9,62.3,30.08,WSW,257,10.0,10.0,55,0.00,FEW,,0.00,37.0,WeatherDisplay:10.37,2013-09-02 16:52:00,
2013-09-02 18:53:00,79.8,62.2,30.09,West,280,10.4,10.4,55,0.00,FEW,,0.00,37.0,WeatherDisplay:10.37,2013-09-02 16:53:00,
2013-09-02 18:54:00,79.8,62.2,30.08,West,272,9.2,9.2,55,0.00,FEW,,0.00,35.0,WeatherDisplay:10.37,2013-09-02 16:54:00,
2013-09-02 18:55:00,79.8,62.2,30.08,WSW,249,7.0,7.0,55,0.00,FEW,,0.00,33.0,WeatherDisplay:10.37,2013-09-02 16:55:00,
2013-09-02 18:56:00,79.8,62.2,30.09,West,265,6.9,6.9,55,0.00,FEW,,0.00,33.0,WeatherDisplay:10.37,2013-09-02 16:56:00,
2013-09-02 18:57:00,79.8,62.2,30.08,WNW,284,6.9,6.9,55,0.00,FEW,,0.00,30.0,WeatherDisplay:10.37,2013-09-02 16:57:00,
2013-09-02 18:58:00,79.7,62.6,30.09,WNW,295,6.0,6.0,56,0.00,FEW,,0.00,28.0,WeatherDisplay:10.37,2013-09-02 16:58:00,
2013-09-02 19:00:00,79.7,62.6,30.08,WNW,299,6.9,6.9,56,0.00,FEW,,0.00,28.0,WeatherDisplay:10.37,2013-09-02 17:00:00,
2013-09-02 19:01:00,79.7,62.6,30.09,NW,309,8.1,8.1,56,0.00,FEW,,0.00,28.0,WeatherDisplay:10.37,2013-09-02 17:01:00,
2013-09-02 19:02:00,79.6,63.0,30.09,WNW,286,7.0,7.0,57,0.00,FEW,,0.00,28.0,WeatherDisplay:10.37,2013-09-02 17:02:00,
2013-09-02 19:03:00,79.6,63.0,30.08,WNW,284,8.1,8.1,57,0.00,FEW,,0.00,25.0,WeatherDisplay:10.37,2013-09-02 17:03:00,
2013-09-02 19:05:00,79.5,62.9,30.09,WNW,294,5.8,5.8,57,0.00,FEW,,0.00,25.0,WeatherDisplay:10.37,2013-09-02 17:05:00,
2013-09-02 19:06:00,79.5,62.9,30.09,WNW,298,6.9,6.9,57,0.00,FEW,,0.00,21.0,WeatherDisplay:10.37,2013-09-02 17:06:00,
2013-09-02 19:08:00,79.4,63.3,30.09,West,277,8.0,8.0,58,0.00,FEW,,0.00,21.0,WeatherDisplay:10.37,2013-09-02 17:08:00,
2013-09-02 19:09:00,79.3,63.7,30.09,WNW,286,9.2,9.2,59,0.00,FEW,,0.00,19.0,WeatherDisplay:10.37,2013-09-02 17:09:00,
2013-09-02 19:11:00,79.2,64.1,30.09,WNW,297,9.2,9.2,60,0.00,FEW,,0.00,18.0,WeatherDisplay:10.37,2013-09-02 17:11:00,
2013-09-02 19:12:00,79.2,64.1,30.09,WNW,286,6.9,6.9,60,0.00,FEW,,0.00,18.0,WeatherDisplay:10.37,2013-09-02 17:12:00,
2013-09-02 19:13:00,79.2,64.6,30.09,WNW,294,6.9,6.9,61,0.00,FEW,,0.00,16.0,WeatherDisplay:10.37,2013-09-02 17:13:00,
2013-09-02 19:14:00,79.1,64.5,30.09,WNW,285,6.9,6.9,61,0.00,FEW,,0.00,16.0,WeatherDisplay:10.37,2013-09-02 17:14:00,
2013-09-02 19:15:00,79.1,64.5,30.09,WNW,285,8.1,8.1,61,0.00,FEW,,0.00,16.0,WeatherDisplay:10.37,2013-09-02 17:15:00,
2013-09-02 19:16:00,79.0,64.4,30.09,West,268,6.9,6.9,61,0.00,FEW,,0.00,16.0,WeatherDisplay:10.37,2013-09-02 17:16:00,
2013-09-02 19:17:00,79.0,64.4,30.09,West,267,6.9,6.9,61,0.00,FEW,,0.00,16.0,WeatherDisplay:10.37,2013-09-02 17:17:00,
2013-09-02 19:19:00,78.9,65.2,30.09,West,259,7.0,7.0,63,0.00,FEW,,0.00,16.0,WeatherDisplay:10.37,2013-09-02 17:19:00,
2013-09-02 19:20:00,78.8,65.1,30.09,WNW,295,8.1,8.1,63,0.00,FEW,,0.00,12.0,WeatherDisplay:10.37,2013-09-02 17:20:00,
2013-09-02 19:21:00,78.6,64.9,30.09,West,261,9.2,9.2,63,0.00,FEW,,0.00,11.0,WeatherDisplay:10.37,2013-09-02 17:21:00,
2013-09-02 19:23:00,78.6,64.9,30.09,WNW,302,8.1,8.1,63,0.00,FEW,,0.00,11.0,WeatherDisplay:10.37,2013-09-02 17:23:00,
2013-09-02 19:24:00,78.6,64.9,30.09,West,259,9.0,9.0,63,0.00,FEW,,0.00,9.0,WeatherDisplay:10.37,2013-09-02 17:24:00,
2013-09-02 19:25:00,78.6,64.9,30.09,West,273,9.2,9.2,63,0.00,FEW,,0.00,9.0,WeatherDisplay:10.37,2013-09-02 17:25:00,
2013-09-02 19:26:00,78.5,65.3,30.09,WSW,257,8.1,8.1,64,0.00,FEW,,0.00,7.0,WeatherDisplay:10.37,2013-09-02 17:26:00,
2013-09-02 19:27:00,78.4,65.2,30.09,WNW,285,8.1,8.1,64,0.00,FEW,,0.00,7.0,WeatherDisplay:10.37,2013-09-02 17:27:00,
2013-09-02 19:29:00,78.3,65.6,30.10,NW,304,8.1,8.1,65,0.00,FEW,,0.00,5.0,WeatherDisplay:10.37,2013-09-02 17:29:00,
2013-09-02 19:30:00,78.3,65.6,30.10,WNW,288,9.2,9.2,65,0.00,FEW,,0.00,5.0,WeatherDisplay:10.37,2013-09-02 17:30:00,
2013-09-02 19:32:00,78.2,65.5,30.10,West,277,8.0,8.0,65,0.00,FEW,,0.00,5.0,WeatherDisplay:10.37,2013-09-02 17:32:00,
2013-09-02 19:33:00,78.1,65.8,30.10,WNW,285,6.9,6.9,66,0.00,FEW,,0.00,0.0,WeatherDisplay:10.37,2013-09-02 17:33:00,
2013-09-02 19:34:00,78.1,65.8,30.10,West,280,6.9,6.9,66,0.00,FEW,,0.00,0.0,WeatherDisplay:10.37,2013-09-02 17:34:00,
2013-09-02 19:35:00,78.0,65.7,30.10,WSW,253,8.1,8.1,66,0.00,FEW,,0.00,0.0,WeatherDisplay:10.37,2013-09-02 17:35:00,
2013-09-02 19:37:00,77.9,66.1,30.10,WSW,252,5.8,5.8,67,0.00,FEW,,0.00,0.0,WeatherDisplay:10.37,2013-09-02 17:37:00,
2013-09-02 19:38:00,77.9,66.1,30.10,WSW,253,6.0,6.4,67,0.00,FEW,,0.00,0.0,WeatherDisplay:10.37,2013-09-02 17:38:00,
2013-09-02 19:39:00,77.9,66.1,30.10,WSW,252,8.1,8.1,67,0.00,FEW,,0.00,0.0,WeatherDisplay:10.37,2013-09-02 17:39:00,
2013-09-02 19:40:00,77.8,66.0,30.10,West,271,7.0,7.0,67,0.00,FEW,,0.00,0.0,WeatherDisplay:10.37,2013-09-02 17:40:00,
2013-09-02 19:41:00,77.8,66.0,30.10,West,260,6.0,6.0,67,0.00,FEW,,0.00,0.0,WeatherDisplay:10.37,2013-09-02 17:41:00,
2013-09-02 19:42:00,77.8,66.0,30.10,WSW,246,7.0,7.0,67,0.00,FEW,,0.00,0.0,WeatherDisplay:10.37,2013-09-02 17:42:00,
2013-09-02 19:44:00,77.7,66.3,30.10,WSW,242,8.1,8.1,68,0.00,FEW,,0.00,0.0,WeatherDisplay:10.37,2013-09-02 17:44:00,
2013-09-02 19:45:00,77.7,66.3,30.10,WSW,257,8.1,8.1,68,0.00,FEW,,0.00,0.0,WeatherDisplay:10.37,2013-09-02 17:45:00,
2013-09-02 19:46:00,77.6,66.2,30.10,WSW,257,8.1,8.1,68,0.00,FEW,,0.00,0.0,WeatherDisplay:10.37,2013-09-02 17:46:00,
2013-09-02 19:47:00,77.6,66.2,30.11,West,265,5.0,5.0,68,0.00,FEW,,0.00,0.0,WeatherDisplay:10.37,2013-09-02 17:47:00,
2013-09-02 19:48:00,77.6,66.2,30.10,WSW,242,4.6,4.6,68,0.00,FEW,,0.00,0.0,WeatherDisplay:10.37,2013-09-02 17:48:00,
2013-09-02 19:50:00,77.5,66.1,30.10,West,276,4.6,4.6,68,0.00,FEW,,0.00,0.0,WeatherDisplay:10.37,2013-09-02 17:50:00,
2013-09-02 19:51:00,77.5,66.1,30.10,West,276,4.6,4.6,68,0.00,FEW,,0.00,0.0,WeatherDisplay:10.37,2013-09-02 17:51:00,
2013-09-02 19:52:00,77.4,66.0,30.11,West,267,4.0,4.0,68,0.00,FEW,,0.00,0.0,WeatherDisplay:10.37,2013-09-02 17:52:00,
2013-09-02 19:53:00,77.4,66.0,30.11,West,269,4.6,4.6,68,0.00,FEW,,0.00,0.0,WeatherDisplay:10.37,2013-09-02 17:53:00,
2013-09-02 19:56:00,77.4,66.0,30.11,West,268,5.0,5.0,68,0.00,FEW,,0.00,0.0,WeatherDisplay:10.37,2013-09-02 17:56:00,
2013-09-02 19:57:00,77.3,65.9,30.11,West,267,5.0,5.0,68,0.00,FEW,,0.00,0.0,WeatherDisplay:10.37,2013-09-02 17:57:00,
2013-09-02 19:58:00,77.3,66.3,30.11,WNW,282,6.9,6.9,69,0.00,FEW,,0.00,0.0,WeatherDisplay:10.37,2013-09-02 17:58:00,
2013-09-02 19:59:00,77.3,66.3,30.11,West,275,6.9,6.9,69,0.00,FEW,,0.00,0.0,WeatherDisplay:10.37,2013-09-02 17:59:00,
2013-09-02 20:01:00,77.2,66.2,30.10,West,265,4.0,4.0,69,0.00,FEW,,0.00,0.0,WeatherDisplay:10.37,2013-09-02 18:01:00,
2013-09-02 20:02:00,77.2,66.2,30.11,West,265,3.5,3.5,69,0.00,FEW,,0.00,0.0,WeatherDisplay:10.37,2013-09-02 18:02:00,
2013-09-02 20:03:00,77.2,66.2,30.11,West,265,3.5,3.5,69,0.00,FEW,,0.00,0.0,WeatherDisplay:10.37,2013-09-02 18:03:00,
2013-09-02 20:04:00,77.1,66.1,30.11,West,265,0.0,0.0,69,0.00,FEW,,0.00,0.0,WeatherDisplay:10.37,2013-09-02 18:04:00,
2013-09-02 20:07:00,77.1,66.1,30.11,West,265,0.0,0.0,69,0.00,FEW,,0.00,0.0,WeatherDisplay:10.37,2013-09-02 18:07:00,
2013-09-02 20:08:00,77.0,66.0,30.11,West,263,0.0,0.0,69,0.00,FEW,,0.00,0.0,WeatherDisplay:10.37,2013-09-02 18:08:00,
2013-09-02 20:09:00,77.0,66.0,30.11,West,263,0.0,0.0,69,0.00,FEW,,0.00,0.0,WeatherDisplay:10.37,2013-09-02 18:09:00,
2013-09-02 20:11:00,77.0,66.0,30.11,West,263,0.0,0.0,69,0.00,FEW,,0.00,0.0,WeatherDisplay:10.37,2013-09-02 18:11:00,
2013-09-02 20:13:00,77.0,66.0,30.11,West,274,0.0,0.0,69,0.00,FEW,,0.00,0.0,WeatherDisplay:10.37,2013-09-02 18:13:00,
2013-09-02 20:14:00,77.0,66.0,30.11,West,274,0.0,0.0,69,0.00,FEW,,0.00,0.0,WeatherDisplay:10.37,2013-09-02 18:14:00,
2013-09-02 20:15:00,77.0,66.0,30.11,West,274,0.0,0.0,69,0.00,FEW,,0.00,0.0,WeatherDisplay:10.37,2013-09-02 18:15:00,
2013-09-02 20:16:00,76.9,66.0,30.11,West,275,0.0,0.0,69,0.00,FEW,,0.00,0.0,WeatherDisplay:10.37,2013-09-02 18:16:00,
2013-09-02 20:17:00,76.9,66.0,30.11,West,274,0.0,0.0,69,0.00,FEW,,0.00,0.0,WeatherDisplay:10.37,2013-09-02 18:17:00,
2013-09-02 20:18:00,76.9,66.0,30.11,West,274,0.0,0.0,69,0.00,FEW,,0.00,0.0,WeatherDisplay:10.37,2013-09-02 18:18:00,
2013-09-02 20:19:00,76.9,66.0,30.11,West,274,0.0,0.0,69,0.00,FEW,,0.00,0.0,WeatherDisplay:10.37,2013-09-02 18:19:00,
2013-09-02 20:22:00,76.9,66.0,30.11,West,274,0.0,0.0,69,0.00,FEW,,0.00,0.0,WeatherDisplay:10.37,2013-09-02 18:22:00,
2013-09-02 20:23:00,76.9,66.0,30.11,West,274,0.0,0.0,69,0.00,FEW,,0.00,0.0,WeatherDisplay:10.37,2013-09-02 18:23:00,
2013-09-02 20:24:00,76.8,65.9,30.11,West,275,0.0,0.0,69,0.00,FEW,,0.00,0.0,WeatherDisplay:10.37,2013-09-02 18:24:00,
2013-09-02 20:27:00,76.8,65.9,30.12,West,275,0.0,0.0,69,0.00,FEW,,0.00,0.0,WeatherDisplay:10.37,2013-09-02 18:27:00,
2013-09-02 20:28:00,76.8,65.9,30.12,West,274,0.0,0.0,69,0.00,FEW,,0.00,0.0,WeatherDisplay:10.37,2013-09-02 18:28:00,
2013-09-02 20:29:00,76.7,65.8,30.12,West,274,0.0,0.0,69,0.00,FEW,,0.00,0.0,WeatherDisplay:10.37,2013-09-02 18:29:00,
2013-09-02 20:31:00,76.7,65.8,30.12,WNW,288,0.0,0.0,69,0.00,FEW,,0.00,0.0,WeatherDisplay:10.37,2013-09-02 18:31:00,
2013-09-02 20:32:00,76.6,65.7,30.12,NNW,332,0.0,0.0,69,0.00,FEW,,0.00,0.0,WeatherDisplay:10.37,2013-09-02 18:32:00,
2013-09-02 20:33:00,76.7,66.2,30.12,North,360,0.0,0.0,70,0.00,FEW,,0.00,0.0,WeatherDisplay:10.37,2013-09-02 18:33:00,
2013-09-02 20:34:00,76.6,66.1,30.12,North,360,0.0,0.0,70,0.00,FEW,,0.00,0.0,WeatherDisplay:10.37,2013-09-02 18:34:00,
2013-09-02 20:36:00,76.6,66.1,30.12,North,360,0.0,0.0,70,0.00,FEW,,0.00,0.0,WeatherDisplay:10.37,2013-09-02 18:36:00,
2013-09-02 20:37:00,76.6,66.1,30.12,North,360,0.0,0.0,70,0.00,FEW,,0.00,0.0,WeatherDisplay:10.37,2013-09-02 18:37:00,
2013-09-02 20:38:00,76.6,66.1,30.12,North,360,0.0,0.0,70,0.00,FEW,,0.00,0.0,WeatherDisplay:10.37,2013-09-02 18:38:00,
2013-09-02 20:39:00,76.5,66.0,30.12,North,360,0.0,0.0,70,0.00,FEW,,0.00,0.0,WeatherDisplay:10.37,2013-09-02 18:39:00,
2013-09-02 20:40:00,76.5,66.0,30.12,North,360,0.0,0.0,70,0.00,FEW,,0.00,0.0,WeatherDisplay:10.37,2013-09-02 18:40:00,
2013-09-02 20:42:00,76.5,66.0,30.12,NNE,12,0.0,0.0,70,0.00,FEW,,0.00,0.0,WeatherDisplay:10.37,2013-09-02 18:42:00,
2013-09-02 20:43:00,76.4,65.9,30.12,NNE,17,0.0,0.0,70,0.00,FEW,,0.00,0.0,WeatherDisplay:10.37,2013-09-02 18:43:00,
2013-09-02 20:44:00,76.4,65.9,30.12,NNE,17,0.0,0.0,70,0.00,FEW,,0.00,0.0,WeatherDisplay:10.37,2013-09-02 18:44:00,
2013-09-02 20:45:00,76.4,65.9,30.12,NNE,17,0.0,0.0,70,0.00,FEW,,0.00,0.0,WeatherDisplay:10.37,2013-09-02 18:45:00,
2013-09-02 20:46:00,76.4,65.9,30.12,NNE,17,0.0,0.0,70,0.00,FEW,,0.00,0.0,WeatherDisplay:10.37,2013-09-02 18:46:00,
2013-09-02 20:48:00,76.3,65.8,30.13,NNE,17,0.0,0.0,70,0.00,FEW,,0.00,0.0,WeatherDisplay:10.37,2013-09-02 18:48:00,
2013-09-02 20:49:00,76.3,65.8,30.13,NNE,17,0.0,0.0,70,0.00,FEW,,0.00,0.0,WeatherDisplay:10.37,2013-09-02 18:49:00,
2013-09-02 20:51:00,76.3,65.8,30.13,NNE,19,0.0,0.0,70,0.00,FEW,,0.00,0.0,WeatherDisplay:10.37,2013-09-02 18:51:00,
2013-09-02 20:53:00,76.2,65.7,30.13,NNE,19,0.0,0.0,70,0.00,FEW,,0.00,0.0,WeatherDisplay:10.37,2013-09-02 18:53:00,
2013-09-02 20:54:00,76.2,65.7,30.13,NNE,19,0.0,0.0,70,0.00,FEW,,0.00,0.0,WeatherDisplay:10.37,2013-09-02 18:54:00,
2013-09-02 20:55:00,76.1,65.6,30.12,NNE,19,0.0,0.0,70,0.00,FEW,,0.00,0.0,WeatherDisplay:10.37,2013-09-02 18:55:00,
2013-09-02 20:56:00,76.1,65.6,30.13,NNE,19,0.0,0.0,70,0.00,FEW,,0.00,0.0,WeatherDisplay:10.37,2013-09-02 18:56:00,
2013-09-02 20:58:00,76.1,65.6,30.13,NE,36,0.0,0.0,70,0.00,FEW,,0.00,0.0,WeatherDisplay:10.37,2013-09-02 18:58:00,
2013-09-02 20:59:00,76.1,65.6,30.13,NE,36,0.0,0.0,70,0.00,FEW,,0.00,0.0,WeatherDisplay:10.37,2013-09-02 18:59:00,
2013-09-02 21:00:00,76.1,65.6,30.13,NE,36,0.0,0.0,70,0.00,FEW,,0.00,0.0,WeatherDisplay:10.37,2013-09-02 19:00:00,
2013-09-02 21:01:00,76.1,65.6,30.13,NE,36,0.0,0.0,70,0.00,FEW,,0.00,0.0,WeatherDisplay:10.37,2013-09-02 19:01:00,
2013-09-02 21:03:00,76.0,65.5,30.12,ESE,105,0.0,0.0,70,0.00,FEW,,0.00,0.0,WeatherDisplay:10.37,2013-09-02 19:03:00,
2013-09-02 21:04:00,76.0,65.5,30.13,ESE,105,0.0,0.0,70,0.00,FEW,,0.00,0.0,WeatherDisplay:10.37,2013-09-02 19:04:00,
2013-09-02 21:05:00,76.0,65.5,30.13,ESE,105,0.0,0.0,70,0.00,FEW,,0.00,0.0,WeatherDisplay:10.37,2013-09-02 19:05:00,
2013-09-02 21:08:00,75.9,65.4,30.13,ESE,105,0.0,0.0,70,0.00,FEW,,0.00,0.0,WeatherDisplay:10.37,2013-09-02 19:08:00,
2013-09-02 21:09:00,75.9,65.4,30.13,ESE,105,0.0,0.0,70,0.00,FEW,,0.00,0.0,WeatherDisplay:10.37,2013-09-02 19:09:00,
2013-09-02 21:10:00,75.9,65.4,30.13,ESE,105,0.0,0.0,70,0.00,FEW,,0.00,0.0,WeatherDisplay:10.37,2013-09-02 19:10:00,
2013-09-02 21:12:00,75.8,65.3,30.13,ESE,105,0.0,0.0,70,0.00,FEW,,0.00,0.0,WeatherDisplay:10.37,2013-09-02 19:12:00,
2013-09-02 21:14:00,75.8,65.3,30.13,ESE,105,0.0,0.0,70,0.00,FEW,,0.00,0.0,WeatherDisplay:10.37,2013-09-02 19:14:00,
2013-09-02 21:15:00,75.8,65.3,30.13,ESE,105,0.0,0.0,70,0.00,FEW,,0.00,0.0,WeatherDisplay:10.37,2013-09-02 19:15:00,
2013-09-02 21:16:00,75.8,65.3,30.13,ESE,105,0.0,0.0,70,0.00,FEW,,0.00,0.0,WeatherDisplay:10.37,2013-09-02 19:16:00,
2013-09-02 21:18:00,75.7,65.2,30.13,ESE,105,0.0,0.0,70,0.00,FEW,,0.00,0.0,WeatherDisplay:10.37,2013-09-02 19:18:00,
2013-09-02 21:19:00,75.7,65.2,30.13,ESE,105,0.0,0.0,70,0.00,FEW,,0.00,0.0,WeatherDisplay:10.37,2013-09-02 19:19:00,
2013-09-02 21:20:00,75.7,65.2,30.13,ESE,105,0.0,0.0,70,0.00,FEW,,0.00,0.0,WeatherDisplay:10.37,2013-09-02 19:20:00,
2013-09-02 21:21:00,75.7,65.2,30.13,ESE,105,0.0,0.0,70,0.00,FEW,,0.00,0.0,WeatherDisplay:10.37,2013-09-02 19:21:00,
2013-09-02 21:22:00,75.7,65.2,30.13,ESE,105,0.0,0.0,70,0.00,FEW,,0.00,0.0,WeatherDisplay:10.37,2013-09-02 19:22:00,
2013-09-02 21:24:00,75.7,65.2,30.13,ESE,109,0.0,0.0,70,0.00,FEW,,0.00,0.0,WeatherDisplay:10.37,2013-09-02 19:24:00,
2013-09-02 21:25:00,75.7,65.2,30.13,ESE,111,0.0,0.0,70,0.00,FEW,,0.00,0.0,WeatherDisplay:10.37,2013-09-02 19:25:00,
2013-09-02 21:26:00,75.7,65.2,30.13,ESE,111,0.0,0.0,70,0.00,FEW,,0.00,0.0,WeatherDisplay:10.37,2013-09-02 19:26:00,
2013-09-02 21:27:00,75.7,65.2,30.13,ESE,111,0.0,0.0,70,0.00,FEW,,0.00,0.0,WeatherDisplay:10.37,2013-09-02 19:27:00,
2013-09-02 21:29:00,75.6,65.5,30.13,ESE,111,0.0,0.0,71,0.00,FEW,,0.00,0.0,WeatherDisplay:10.37,2013-09-02 19:29:00,
2013-09-02 21:30:00,75.6,65.5,30.13,ESE,111,0.0,0.0,71,0.00,FEW,,0.00,0.0,WeatherDisplay:10.37,2013-09-02 19:30:00,
2013-09-02 21:31:00,75.6,65.5,30.13,ESE,111,0.0,0.0,71,0.00,FEW,,0.00,0.0,WeatherDisplay:10.37,2013-09-02 19:31:00,
2013-09-02 21:32:00,75.6,65.5,30.13,ESE,111,0.0,0.0,71,0.00,FEW,,0.00,0.0,WeatherDisplay:10.37,2013-09-02 19:32:00,
2013-09-02 21:33:00,75.6,65.5,30.13,ESE,111,0.0,0.0,71,0.00,FEW,,0.00,0.0,WeatherDisplay:10.37,2013-09-02 19:33:00,
2013-09-02 21:34:00,75.6,65.5,30.13,ESE,111,0.0,0.0,71,0.00,FEW,,0.00,0.0,WeatherDisplay:10.37,2013-09-02 19:34:00,
2013-09-02 21:35:00,75.6,65.5,30.13,ESE,111,0.0,0.0,71,0.00,FEW,,0.00,0.0,WeatherDisplay:10.37,2013-09-02 19:35:00,
2013-09-02 21:36:00,75.6,65.5,30.13,ESE,111,0.0,0.0,71,0.00,FEW,,0.00,0.0,WeatherDisplay:10.37,2013-09-02 19:36:00,
2013-09-02 21:37:00,75.5,65.4,30.13,ESE,111,0.0,0.0,71,0.00,FEW,,0.00,0.0,WeatherDisplay:10.37,2013-09-02 19:37:00,
2013-09-02 21:38:00,75.5,65.4,30.13,ESE,111,0.0,0.0,71,0.00,FEW,,0.00,0.0,WeatherDisplay:10.37,2013-09-02 19:38:00,
2013-09-02 21:41:00,75.5,65.4,30.13,ESE,111,0.0,0.0,71,0.00,FEW,,0.00,0.0,WeatherDisplay:10.37,2013-09-02 19:41:00,
2013-09-02 21:43:00,75.5,65.4,30.13,NE,53,0.0,0.0,71,0.00,FEW,,0.00,0.0,WeatherDisplay:10.37,2013-09-02 19:43:00,
2013-09-02 21:44:00,75.4,65.3,30.13,NE,53,1.2,0.0,71,0.00,FEW,,0.00,0.0,WeatherDisplay:10.37,2013-09-02 19:44:00,
2013-09-02 21:46:00,75.3,64.8,30.13,NE,51,3.5,3.5,70,0.00,FEW,,0.00,0.0,WeatherDisplay:10.37,2013-09-02 19:46:00,
2013-09-02 21:47:00,75.3,64.8,30.13,NE,53,3.5,3.5,70,0.00,FEW,,0.00,0.0,WeatherDisplay:10.37,2013-09-02 19:47:00,
2013-09-02 21:48:00,75.2,64.7,30.13,NE,46,0.0,0.0,70,0.00,FEW,,0.00,0.0,WeatherDisplay:10.37,2013-09-02 19:48:00,
2013-09-02 21:49:00,75.2,64.7,30.13,NE,46,0.0,0.0,70,0.00,FEW,,0.00,0.0,WeatherDisplay:10.37,2013-09-02 19:49:00,
2013-09-02 21:51:00,75.2,64.7,30.13,NE,46,0.0,0.0,70,0.00,FEW,,0.00,0.0,WeatherDisplay:10.37,2013-09-02 19:51:00,
2013-09-02 21:52:00,75.1,64.6,30.13,NE,46,0.0,0.0,70,0.00,FEW,,0.00,0.0,WeatherDisplay:10.37,2013-09-02 19:52:00,
2013-09-02 21:54:00,75.1,64.6,30.13,NE,46,0.0,0.0,70,0.00,FEW,,0.00,0.0,WeatherDisplay:10.37,2013-09-02 19:54:00,
2013-09-02 21:56:00,75.1,64.6,30.13,NE,46,0.0,0.0,70,0.00,FEW,,0.00,0.0,WeatherDisplay:10.37,2013-09-02 19:56:00,
2013-09-02 21:57:00,75.0,64.5,30.13,NE,46,0.0,0.0,70,0.00,FEW,,0.00,0.0,WeatherDisplay:10.37,2013-09-02 19:57:00,
2013-09-02 21:59:00,75.0,64.5,30.13,NE,46,0.0,0.0,70,0.00,FEW,,0.00,0.0,WeatherDisplay:10.37,2013-09-02 19:59:00,
2013-09-02 22:01:00,75.0,64.5,30.13,NE,46,0.0,0.0,70,0.00,FEW,,0.00,0.0,WeatherDisplay:10.37,2013-09-02 20:01:00,
2013-09-02 22:02:00,75.0,64.5,30.14,NE,46,0.0,0.0,70,0.00,FEW,,0.00,0.0,WeatherDisplay:10.37,2013-09-02 20:02:00,
2013-09-02 22:04:00,74.9,64.5,30.14,NE,46,0.0,0.0,70,0.00,FEW,,0.00,0.0,WeatherDisplay:10.37,2013-09-02 20:04:00,
2013-09-02 22:05:00,74.9,64.5,30.14,NE,46,0.0,0.0,70,0.00,FEW,,0.00,0.0,WeatherDisplay:10.37,2013-09-02 20:05:00,
2013-09-02 22:06:00,74.9,64.5,30.14,NE,36,0.0,0.0,70,0.00,FEW,,0.00,0.0,WeatherDisplay:10.37,2013-09-02 20:06:00,
2013-09-02 22:07:00,74.8,64.4,30.14,NE,41,1.2,1.2,70,0.00,FEW,,0.00,0.0,WeatherDisplay:10.37,2013-09-02 20:07:00,
2013-09-02 22:10:00,74.8,64.4,30.14,NE,44,3.5,3.5,70,0.00,FEW,,0.00,0.0,WeatherDisplay:10.37,2013-09-02 20:10:00,
2013-09-02 22:11:00,74.7,64.3,30.14,NE,44,3.5,3.5,70,0.00,FEW,,0.00,0.0,WeatherDisplay:10.37,2013-09-02 20:11:00,
2013-09-02 22:13:00,74.7,64.3,30.14,NE,44,0.0,0.0,70,0.00,FEW,,0.00,0.0,WeatherDisplay:10.37,2013-09-02 20:13:00,
2013-09-02 22:15:00,74.6,64.2,30.14,NE,38,2.3,2.3,70,0.00,FEW,,0.00,0.0,WeatherDisplay:10.37,2013-09-02 20:15:00,
2013-09-02 22:16:00,74.7,64.3,30.14,NE,38,2.3,2.3,70,0.00,FEW,,0.00,0.0,WeatherDisplay:10.37,2013-09-02 20:16:00,
2013-09-02 22:17:00,74.6,64.2,30.14,NE,38,0.0,0.0,70,0.00,FEW,,0.00,0.0,WeatherDisplay:10.37,2013-09-02 20:17:00,
2013-09-02 22:18:00,74.6,64.2,30.14,NE,39,0.0,0.0,70,0.00,FEW,,0.00,0.0,WeatherDisplay:10.37,2013-09-02 20:18:00,
2013-09-02 22:19:00,74.6,64.2,30.14,NE,39,0.0,0.0,70,0.00,FEW,,0.00,0.0,WeatherDisplay:10.37,2013-09-02 20:19:00,
2013-09-02 22:20:00,74.6,64.2,30.14,NE,40,0.0,0.0,70,0.00,FEW,,0.00,0.0,WeatherDisplay:10.37,2013-09-02 20:20:00,
2013-09-02 22:21:00,74.6,64.2,30.14,NE,55,0.0,0.0,70,0.00,FEW,,0.00,0.0,WeatherDisplay:10.37,2013-09-02 20:21:00,
2013-09-02 22:23:00,74.6,64.2,30.14,NE,55,0.0,0.1,70,0.00,FEW,,0.00,0.0,WeatherDisplay:10.37,2013-09-02 20:23:00,
2013-09-02 22:24:00,74.6,64.2,30.14,NE,54,1.2,0.0,70,0.00,FEW,,0.00,0.0,WeatherDisplay:10.37,2013-09-02 20:24:00,
2013-09-02 22:25:00,74.6,64.2,30.14,NE,42,2.0,2.0,70,0.00,FEW,,0.00,0.0,WeatherDisplay:10.37,2013-09-02 20:25:00,
2013-09-02 22:26:00,74.6,64.6,30.14,NE,34,3.5,3.5,71,0.00,FEW,,0.00,0.0,WeatherDisplay:10.37,2013-09-02 20:26:00,
2013-09-02 22:27:00,74.6,64.6,30.14,NE,51,3.0,3.0,71,0.00,FEW,,0.00,0.0,WeatherDisplay:10.37,2013-09-02 20:27:00,
2013-09-02 22:28:00,74.7,64.7,30.14,NE,50,3.5,3.5,71,0.00,FEW,,0.00,0.0,WeatherDisplay:10.37,2013-09-02 20:28:00,
2013-09-02 22:29:00,74.7,64.7,30.14,ENE,59,1.2,0.0,71,0.00,FEW,,0.00,0.0,WeatherDisplay:10.37,2013-09-02 20:29:00,
2013-09-02 22:31:00,74.7,64.7,30.14,ENE,59,0.0,0.0,71,0.00,FEW,,0.00,0.0,WeatherDisplay:10.37,2013-09-02 20:31:00,
2013-09-02 22:32:00,74.7,64.7,30.14,ENE,59,0.0,0.0,71,0.00,FEW,,0.00,0.0,WeatherDisplay:10.37,2013-09-02 20:32:00,
2013-09-02 22:34:00,74.7,64.7,30.14,NE,51,0.0,0.0,71,0.00,FEW,,0.00,0.0,WeatherDisplay:10.37,2013-09-02 20:34:00,
2013-09-02 22:36:00,74.8,64.8,30.14,NE,54,0.0,0.1,71,0.00,FEW,,0.00,0.0,WeatherDisplay:10.37,2013-09-02 20:36:00,
2013-09-02 22:37:00,74.7,64.7,30.14,NE,53,2.0,2.0,71,0.00,FEW,,0.00,0.0,WeatherDisplay:10.37,2013-09-02 20:37:00,
2013-09-02 22:39:00,74.6,63.8,30.14,ENE,60,2.3,0.0,69,0.00,FEW,,0.00,0.0,WeatherDisplay:10.37,2013-09-02 20:39:00,
2013-09-02 22:40:00,74.6,63.8,30.14,ENE,75,1.2,0.0,69,0.00,FEW,,0.00,0.0,WeatherDisplay:10.37,2013-09-02 20:40:00,
2013-09-02 22:41:00,74.6,63.3,30.14,ENE,57,1.2,0.0,68,0.00,FEW,,0.00,0.0,WeatherDisplay:10.37,2013-09-02 20:41:00,
2013-09-02 22:42:00,74.5,63.2,30.14,NE,56,1.2,0.0,68,0.00,FEW,,0.00,0.0,WeatherDisplay:10.37,2013-09-02 20:42:00,
2013-09-02 22:44:00,74.5,62.8,30.14,NE,55,3.5,3.5,67,0.00,FEW,,0.00,0.0,WeatherDisplay:10.37,2013-09-02 20:44:00,
2013-09-02 22:45:00,74.5,62.8,30.14,NE,45,3.5,3.5,67,0.00,FEW,,0.00,0.0,WeatherDisplay:10.37,2013-09-02 20:45:00,
2013-09-02 22:47:00,74.5,62.4,30.15,ENE,67,3.5,3.5,66,0.00,FEW,,0.00,0.0,WeatherDisplay:10.37,2013-09-02 20:47:00,
2013-09-02 22:49:00,74.5,62.0,30.14,ENE,65,4.6,4.6,65,0.00,FEW,,0.00,0.0,WeatherDisplay:10.37,2013-09-02 20:49:00,
2013-09-02 22:50:00,74.5,62.0,30.14,ENE,59,3.5,0.0,65,0.00,FEW,,0.00,0.0,WeatherDisplay:10.37,2013-09-02 20:50:00,
2013-09-02 22:52:00,74.5,61.5,30.14,NE,55,4.6,4.6,64,0.00,FEW,,0.00,0.0,WeatherDisplay:10.37,2013-09-02 20:52:00,
2013-09-02 22:53:00,74.5,61.1,30.14,ENE,64,4.0,4.0,63,0.00,FEW,,0.00,0.0,WeatherDisplay:10.37,2013-09-02 20:53:00,
2013-09-02 22:55:00,74.5,60.6,30.15,ENE,58,3.5,3.5,62,0.00,FEW,,0.00,0.0,WeatherDisplay:10.37,2013-09-02 20:55:00,
2013-09-02 22:56:00,74.5,60.6,30.14,NE,40,5.0,5.0,62,0.00,FEW,,0.00,0.0,WeatherDisplay:10.37,2013-09-02 20:56:00,
2013-09-02 22:57:00,74.5,60.6,30.15,NE,40,4.6,5.8,62,0.00,FEW,,0.00,0.0,WeatherDisplay:10.37,2013-09-02 20:57:00,
2013-09-02 22:58:00,74.5,60.2,30.14,NE,55,8.1,8.1,61,0.00,FEW,,0.00,0.0,WeatherDisplay:10.37,2013-09-02 20:58:00,
2013-09-02 23:00:00,74.6,59.8,30.15,NE,53,4.6,4.6,60,0.00,FEW,,0.00,0.0,WeatherDisplay:10.37,2013-09-02 21:00:00,
2013-09-02 23:01:00,74.7,59.9,30.15,NE,56,6.9,6.9,60,0.00,FEW,,0.00,0.0,WeatherDisplay:10.37,2013-09-02 21:01:00,
2013-09-02 23:02:00,74.7,59.9,30.15,NE,47,4.6,4.6,60,0.00,FEW,,0.00,0.0,WeatherDisplay:10.37,2013-09-02 21:02:00,
2013-09-02 23:03:00,74.7,59.9,30.15,NE,55,4.6,4.6,60,0.00,FEW,,0.00,0.0,WeatherDisplay:10.37,2013-09-02 21:03:00,
2013-09-02 23:07:00,74.8,59.0,30.15,ENE,61,3.5,3.5,58,0.00,FEW,,0.00,0.0,WeatherDisplay:10.37,2013-09-02 21:07:00,
2013-09-02 23:08:00,74.8,59.0,30.15,ENE,57,3.5,3.5,58,0.00,FEW,,0.00,0.0,WeatherDisplay:10.37,2013-09-02 21:08:00,
2013-09-02 23:09:00,74.8,59.0,30.15,ENE,61,0.0,0.0,58,0.00,FEW,,0.00,0.0,WeatherDisplay:10.37,2013-09-02 21:09:00,
2013-09-02 23:13:00,74.9,58.6,30.15,NE,46,3.5,3.5,57,0.00,FEW,,0.00,0.0,WeatherDisplay:10.37,2013-09-02 21:13:00,
2013-09-02 23:14:00,74.9,58.6,30.15,NE,43,3.5,3.5,57,0.00,FEW,,0.00,0.0,WeatherDisplay:10.37,2013-09-02 21:14:00,
2013-09-02 23:15:00,74.9,58.6,30.15,NE,53,4.6,4.6,57,0.00,FEW,,0.00,0.0,WeatherDisplay:10.37,2013-09-02 21:15:00,
2013-09-02 23:18:00,75.0,58.2,30.16,NE,50,4.6,4.6,56,0.00,FEW,,0.00,0.0,WeatherDisplay:10.37,2013-09-02 21:18:00,
2013-09-02 23:19:00,75.0,58.2,30.16,ENE,57,5.0,5.0,56,0.00,FEW,,0.00,0.0,WeatherDisplay:10.37,2013-09-02 21:19:00,
2013-09-02 23:21:00,75.0,57.7,30.16,NE,51,4.6,4.6,55,0.00,FEW,,0.00,0.0,WeatherDisplay:10.37,2013-09-02 21:21:00,
2013-09-02 23:23:00,75.1,57.8,30.16,NE,43,4.6,4.6,55,0.00,FEW,,0.00,0.0,WeatherDisplay:10.37,2013-09-02 21:23:00,
2013-09-02 23:24:00,75.1,57.3,30.16,NE,38,4.6,4.6,54,0.00,FEW,,0.00,0.0,WeatherDisplay:10.37,2013-09-02 21:24:00,
2013-09-02 23:26:00,75.1,57.3,30.16,ENE,63,3.5,3.5,54,0.00,FEW,,0.00,0.0,WeatherDisplay:10.37,2013-09-02 21:26:00,
2013-09-02 23:27:00,75.1,57.3,30.16,NE,42,3.5,3.5,54,0.00,FEW,,0.00,0.0,WeatherDisplay:10.37,2013-09-02 21:27:00,
2013-09-02 23:28:00,75.2,57.4,30.16,ENE,58,0.0,0.0,54,0.00,FEW,,0.00,0.0,WeatherDisplay:10.37,2013-09-02 21:28:00,
2013-09-02 23:29:00,75.2,57.4,30.16,ENE,63,0.0,0.0,54,0.00,FEW,,0.00,0.0,WeatherDisplay:10.37,2013-09-02 21:29:00,
2013-09-02 23:31:00,75.2,57.4,30.15,ENE,58,4.0,4.0,54,0.00,FEW,,0.00,0.0,WeatherDisplay:10.37,2013-09-02 21:31:00,
2013-09-02 23:33:00,75.2,56.9,30.15,NE,37,6.0,6.0,53,0.00,FEW,,0.00,0.0,WeatherDisplay:10.37,2013-09-02 21:33:00,
2013-09-02 23:34:00,75.2,56.9,30.15,ENE,59,3.5,4.4,53,0.00,FEW,,0.00,0.0,WeatherDisplay:10.37,2013-09-02 21:34:00,
2013-09-02 23:35:00,75.2,56.9,30.15,NNE,33,5.8,5.8,53,0.00,FEW,,0.00,0.0,WeatherDisplay:10.37,2013-09-02 21:35:00,
2013-09-02 23:37:00,75.3,57.0,30.15,ENE,62,2.0,2.0,53,0.00,FEW,,0.00,0.0,WeatherDisplay:10.37,2013-09-02 21:37:00,
2013-09-02 23:38:00,75.3,57.0,30.15,NE,55,2.3,2.3,53,0.00,FEW,,0.00,0.0,WeatherDisplay:10.37,2013-09-02 21:38:00,
2013-09-02 23:39:00,75.3,57.0,30.15,ENE,57,2.3,2.3,53,0.00,FEW,,0.00,0.0,WeatherDisplay:10.37,2013-09-02 21:39:00,
2013-09-02 23:41:00,75.3,57.0,30.15,ENE,64,0.0,0.0,53,0.00,FEW,,0.00,0.0,WeatherDisplay:10.37,2013-09-02 21:41:00,
2013-09-02 23:42:00,75.3,57.0,30.15,ENE,67,1.2,1.2,53,0.00,FEW,,0.00,0.0,WeatherDisplay:10.37,2013-09-02 21:42:00,
2013-09-02 23:43:00,75.3,57.0,30.15,NE,39,6.0,6.0,53,0.00,FEW,,0.00,0.0,WeatherDisplay:10.37,2013-09-02 21:43:00,
2013-09-02 23:44:00,75.3,57.0,30.15,NE,54,3.5,3.7,53,0.00,FEW,,0.00,0.0,WeatherDisplay:10.37,2013-09-02 21:44:00,
2013-09-02 23:46:00,75.3,57.0,30.15,NE,43,3.0,3.0,53,0.00,FEW,,0.00,0.0,WeatherDisplay:10.37,2013-09-02 21:46:00,
2013-09-02 23:47:00,75.3,57.0,30.15,NNE,32,3.5,3.5,53,0.00,FEW,,0.00,0.0,WeatherDisplay:10.37,2013-09-02 21:47:00,
2013-09-02 23:48:00,75.2,56.9,30.15,ENE,57,4.6,4.6,53,0.00,FEW,,0.00,0.0,WeatherDisplay:10.37,2013-09-02 21:48:00,
2013-09-02 23:49:00,75.2,56.9,30.15,NE,44,3.5,3.5,53,0.00,FEW,,0.00,0.0,WeatherDisplay:10.37,2013-09-02 21:49:00,
2013-09-02 23:51:00,75.2,56.9,30.15,NE,40,6.9,6.9,53,0.00,FEW,,0.00,0.0,WeatherDisplay:10.37,2013-09-02 21:51:00,
2013-09-02 23:52:00,75.1,56.8,30.15,NE,46,2.3,2.3,53,0.00,FEW,,0.00,0.0,WeatherDisplay:10.37,2013-09-02 21:52:00,
2013-09-02 23:54:00,75.1,56.8,30.15,ENE,62,4.6,4.6,53,0.00,FEW,,0.00,0.0,WeatherDisplay:10.37,2013-09-02 21:54:00,
2013-09-02 23:55:00,75.0,56.7,30.15,ENE,65,2.3,0.0,53,0.00,FEW,,0.00,0.0,WeatherDisplay:10.37,2013-09-02 21:55:00,
2013-09-02 23:56:00,75.0,56.7,30.15,NE,53,5.0,5.0,53,0.00,FEW,,0.00,0.0,WeatherDisplay:10.37,2013-09-02 21:56:00,
2013-09-02 23:58:00,75.0,56.7,30.15,NE,55,4.6,4.6,53,0.00,FEW,,0.00,0.0,WeatherDisplay:10.37,2013-09-02 21:58:00,
2013-09-02 23:59:00,75.0,56.7,30.15,ENE,66,2.3,2.3,53,0.00,FEW,,0.00,0.0,WeatherDisplay:10.37,2013-09-02 21:59:00,